Wetterdaten: aktuell Mittwoch, 18.09.2019 19:56
Datum Zeit Temp. 2m Temp. 5cm Temp. -10cm Feuchte 2m Luftdruck Regen Wind Richtung Richtung Taupunkt Windchill Windben
18.09.2019 19:56 6,7 C 1,0 C 15,3 C 61 % 1020,8 hPa 0,0 l/m 2,3 km/h (1 Bft) O 90 -0,3 C 6,7 C 5,6 km/h (1 Bft)
18.09.2019 19:54 6,6 C 0,9 C 15,3 C 61 % 1020,1 hPa 0,0 l/m 2,4 km/h (1 Bft) O 90 -0,4 C 6,6 C 2,9 km/h (1 Bft)
18.09.2019 19:52 6,5 C 0,8 C 15,3 C 61 % 1020,1 hPa 0,0 l/m 2,9 km/h (1 Bft) O-SO 112 -0,5 C 6,5 C 2,9 km/h (1 Bft)
18.09.2019 19:50 6,7 C 1,1 C 15,3 C 61 % 1020,1 hPa 0,0 l/m 3,4 km/h (1 Bft) O-SO 112 -0,3 C 6,7 C 0,0 km/h (0 Bft)
18.09.2019 19:48 6,8 C 1,3 C 15,3 C 61 % 1020,1 hPa 0,0 l/m 4,2 km/h (1 Bft) O-NO 67 -0,2 C 6,8 C 3,1 km/h (1 Bft)
18.09.2019 19:46 6,8 C 1,5 C 15,3 C 61 % 1020,1 hPa 0,0 l/m 4,3 km/h (1 Bft) O 90 -0,2 C 6,8 C 6,2 km/h (2 Bft)
18.09.2019 19:44 6,6 C 2,0 C 15,4 C 61 % 1020,1 hPa 0,0 l/m 4,3 km/h (1 Bft) O 90 -0,4 C 6,6 C 5,8 km/h (2 Bft)
18.09.2019 19:42 6,6 C 2,0 C 15,4 C 61 % 1020,1 hPa 0,0 l/m 4,2 km/h (1 Bft) O-NO 67 -0,4 C 6,6 C 6,2 km/h (2 Bft)
18.09.2019 19:40 6,9 C 2,0 C 15,4 C 60 % 1020,1 hPa 0,0 l/m 3,9 km/h (1 Bft) O 90 -0,3 C 6,9 C 5,2 km/h (1 Bft)
18.09.2019 19:38 7,1 C 2,1 C 15,4 C 60 % 1020,1 hPa 0,0 l/m 3,7 km/h (1 Bft) O-NO 67 -0,1 C 7,1 C 7,7 km/h (2 Bft)
18.09.2019 19:36 7,2 C 2,2 C 15,4 C 60 % 1020,1 hPa 0,0 l/m 3,5 km/h (1 Bft) O-NO 67 -0,0 C 7,2 C 4,2 km/h (1 Bft)
18.09.2019 19:34 7,7 C 2,0 C 15,4 C 60 % 1019,8 hPa 0,0 l/m 3,5 km/h (1 Bft) O-NO 67 0,4 C 7,7 C 5,4 km/h (1 Bft)
18.09.2019 19:32 7,1 C 2,1 C 15,4 C 60 % 1019,8 hPa 0,0 l/m 3,1 km/h (1 Bft) O-NO 67 -0,1 C 7,1 C 5,0 km/h (1 Bft)
18.09.2019 19:30 6,9 C 1,8 C 15,4 C 60 % 1019,8 hPa 0,0 l/m 2,9 km/h (1 Bft) O-NO 67 -0,3 C 6,9 C 3,9 km/h (1 Bft)
18.09.2019 19:28 7,0 C 2,0 C 15,4 C 60 % 1019,8 hPa 0,0 l/m 2,7 km/h (1 Bft) O-NO 67 -0,2 C 7,0 C 4,8 km/h (1 Bft)
18.09.2019 19:26 7,1 C 2,5 C 15,5 C 60 % 1019,8 hPa 0,0 l/m 2,4 km/h (1 Bft) O-NO 67 -0,1 C 7,1 C 5,0 km/h (1 Bft)
18.09.2019 19:24 7,1 C 2,4 C 15,5 C 59 % 1019,8 hPa 0,0 l/m 1,6 km/h (1 Bft) O-NO 67 -0,4 C 7,1 C 6,0 km/h (2 Bft)
18.09.2019 19:22 7,3 C 1,9 C 15,5 C 59 % 1019,8 hPa 0,0 l/m 1,3 km/h (1 Bft) O-NO 67 -0,2 C 7,3 C 2,1 km/h (1 Bft)
18.09.2019 19:20 7,5 C 1,6 C 15,5 C 59 % 1019,8 hPa 0,0 l/m 1,0 km/h (0 Bft) O-NO 67 0,0 C 7,5 C 3,7 km/h (1 Bft)
18.09.2019 19:18 7,7 C 1,6 C 15,5 C 59 % 1019,8 hPa 0,0 l/m 0,5 km/h (0 Bft) O-NO 67 0,2 C 7,7 C 3,7 km/h (1 Bft)
18.09.2019 19:16 7,9 C 2,0 C 15,5 C 58 % 1019,8 hPa 0,0 l/m 0,2 km/h (0 Bft) O-NO 67 0,2 C 7,9 C 0,0 km/h (0 Bft)
18.09.2019 19:14 8,2 C 2,3 C 15,5 C 58 % 1019,5 hPa 0,0 l/m 0,2 km/h (0 Bft) O-SO 112 0,4 C 8,2 C 0,0 km/h (0 Bft)
18.09.2019 19:12 8,1 C 2,6 C 15,4 C 58 % 1019,5 hPa 0,0 l/m 0,3 km/h (0 Bft) W 270 0,3 C 8,1 C 0,0 km/h (0 Bft)
18.09.2019 19:10 8,1 C 2,8 C 15,4 C 57 % 1019,5 hPa 0,0 l/m 0,3 km/h (0 Bft) O-SO 112 0,1 C 8,1 C 0,0 km/h (0 Bft)
18.09.2019 19:08 8,1 C 2,7 C 15,4 C 57 % 1019,5 hPa 0,0 l/m 0,3 km/h (0 Bft) O-NO 67 0,1 C 8,1 C 0,0 km/h (0 Bft)
18.09.2019 19:06 8,5 C 2,8 C 15,5 C 57 % 1019,5 hPa 0,0 l/m 0,5 km/h (0 Bft) S-SO 157 0,5 C 8,5 C 2,5 km/h (1 Bft)
18.09.2019 19:04 8,5 C 2,9 C 15,5 C 57 % 1019,5 hPa 0,0 l/m 0,5 km/h (0 Bft) S-SO 157 0,5 C 8,5 C 0,0 km/h (0 Bft)
18.09.2019 19:02 8,4 C 2,7 C 15,5 C 57 % 1019,5 hPa 0,0 l/m 0,5 km/h (0 Bft) S-SW 202 0,4 C 8,4 C 0,0 km/h (0 Bft)
18.09.2019 19:00 8,5 C 2,7 C 15,5 C 56 % 1019,5 hPa 0,0 l/m 0,8 km/h (0 Bft) O 90 0,2 C 8,5 C 0,0 km/h (0 Bft)
18.09.2019 18:58 8,7 C 3,1 C 15,5 C 56 % 1019,5 hPa 0,0 l/m 0,8 km/h (0 Bft) N-NO 22 0,4 C 8,7 C 0,0 km/h (0 Bft)
18.09.2019 18:56 8,7 C 3,2 C 15,5 C 56 % 1019,5 hPa 0,0 l/m 0,8 km/h (0 Bft) O-NO 67 0,4 C 8,7 C 0,0 km/h (0 Bft)
18.09.2019 18:54 9,0 C 3,3 C 15,5 C 55 % 1019,1 hPa 0,0 l/m 0,6 km/h (0 Bft) O-NO 67 0,5 C 9,0 C 2,3 km/h (1 Bft)
18.09.2019 18:52 9,1 C 3,4 C 15,5 C 54 % 1019,1 hPa 0,0 l/m 0,3 km/h (0 Bft) O-SO 112 0,3 C 9,1 C 3,5 km/h (1 Bft)
18.09.2019 18:50 9,2 C 3,5 C 15,5 C 54 % 1019,1 hPa 0,0 l/m 0,2 km/h (0 Bft) O-SO 112 0,4 C 9,2 C 5,4 km/h (1 Bft)
18.09.2019 18:48 9,4 C 3,8 C 15,5 C 53 % 1019,1 hPa 0,0 l/m 0,0 km/h (0 Bft) O-SO 112 0,3 C 9,4 C 0,0 km/h (0 Bft)
18.09.2019 18:46 9,6 C 4,0 C 15,6 C 53 % 1019,1 hPa 0,0 l/m 0,0 km/h (0 Bft) SO 135 0,5 C 9,6 C 0,0 km/h (0 Bft)
18.09.2019 18:44 9,9 C 4,1 C 15,6 C 52 % 1019,1 hPa 0,0 l/m 0,2 km/h (0 Bft) NW 315 0,5 C 9,9 C 0,0 km/h (0 Bft)
18.09.2019 18:42 10,2 C 4,3 C 15,6 C 52 % 1019,1 hPa 0,0 l/m 0,2 km/h (0 Bft) SO 135 0,8 C 10,2 C 0,0 km/h (0 Bft)
18.09.2019 18:40 10,3 C 4,6 C 15,6 C 52 % 1019,1 hPa 0,0 l/m 0,2 km/h (0 Bft) N-NW 337 0,9 C 10,3 C 0,0 km/h (0 Bft)
18.09.2019 18:38 10,4 C 4,6 C 15,6 C 52 % 1019,1 hPa 0,0 l/m 0,3 km/h (0 Bft) W-NW 292 1,0 C 10,4 C 0,0 km/h (0 Bft)
18.09.2019 18:36 10,6 C 4,7 C 15,6 C 51 % 1019,1 hPa 0,0 l/m 0,8 km/h (0 Bft) O 90 0,9 C 10,6 C 0,0 km/h (0 Bft)
18.09.2019 18:34 10,9 C 4,8 C 15,5 C 50 % 1018,9 hPa 0,0 l/m 1,8 km/h (1 Bft) S-SO 157 0,9 C 10,9 C 2,1 km/h (1 Bft)
18.09.2019 18:32 11,1 C 5,1 C 15,5 C 50 % 1018,9 hPa 0,0 l/m 1,8 km/h (1 Bft) O-NO 67 1,1 C 11,1 C 0,0 km/h (0 Bft)
18.09.2019 18:30 11,3 C 5,3 C 15,5 C 49 % 1018,9 hPa 0,0 l/m 2,1 km/h (1 Bft) O-SO 112 1,0 C 11,3 C 0,0 km/h (0 Bft)
18.09.2019 18:28 11,7 C 5,5 C 15,5 C 48 % 1018,9 hPa 0,0 l/m 2,3 km/h (1 Bft) S-SO 157 1,1 C 11,7 C 1,9 km/h (1 Bft)
18.09.2019 18:26 12,1 C 5,7 C 15,5 C 47 % 1018,9 hPa 0,0 l/m 2,4 km/h (1 Bft) O-SO 112 1,1 C 12,1 C 5,0 km/h (1 Bft)
18.09.2019 18:24 12,3 C 6,1 C 15,5 C 47 % 1018,9 hPa 0,0 l/m 2,1 km/h (1 Bft) SW 225 1,3 C 12,3 C 7,0 km/h (2 Bft)
18.09.2019 18:22 12,8 C 6,1 C 15,5 C 47 % 1018,9 hPa 0,0 l/m 1,9 km/h (1 Bft) S-SW 202 1,8 C 12,8 C 0,0 km/h (0 Bft)
18.09.2019 18:20 13,0 C 6,4 C 15,5 C 45 % 1018,9 hPa 0,0 l/m 2,1 km/h (1 Bft) SO 135 1,4 C 13,0 C 4,2 km/h (1 Bft)
18.09.2019 18:18 13,3 C 6,5 C 15,6 C 44 % 1018,9 hPa 0,0 l/m 2,3 km/h (1 Bft) S-SW 202 1,3 C 13,3 C 3,9 km/h (1 Bft)
18.09.2019 18:16 13,6 C 6,8 C 15,6 C 44 % 1018,9 hPa 0,0 l/m 2,6 km/h (1 Bft) O-SO 112 1,6 C 13,6 C 4,1 km/h (1 Bft)
18.09.2019 18:14 13,9 C 7,5 C 15,6 C 43 % 1018,7 hPa 0,0 l/m 2,6 km/h (1 Bft) SO 135 1,5 C 13,9 C 3,1 km/h (1 Bft)
18.09.2019 18:12 13,9 C 7,8 C 15,6 C 42 % 1018,7 hPa 0,0 l/m 2,7 km/h (1 Bft) S-SW 202 1,2 C 13,9 C 5,4 km/h (1 Bft)
18.09.2019 18:10 13,9 C 7,8 C 15,6 C 42 % 1018,7 hPa 0,0 l/m 2,9 km/h (1 Bft) O-NO 67 1,2 C 13,9 C 2,1 km/h (1 Bft)
18.09.2019 18:08 14,2 C 7,9 C 15,6 C 41 % 1018,7 hPa 0,0 l/m 3,4 km/h (1 Bft) SO 135 1,1 C 14,2 C 5,6 km/h (1 Bft)
18.09.2019 18:06 14,5 C 8,3 C 15,6 C 40 % 1018,7 hPa 0,0 l/m 4,0 km/h (1 Bft) S 180 1,1 C 14,5 C 5,4 km/h (1 Bft)
18.09.2019 18:04 14,7 C 8,6 C 15,6 C 39 % 1018,7 hPa 0,0 l/m 5,1 km/h (1 Bft) W 270 0,9 C 14,7 C 5,0 km/h (1 Bft)
18.09.2019 18:02 14,8 C 9,2 C 15,6 C 38 % 1018,7 hPa 0,0 l/m 6,1 km/h (2 Bft) W-NW 292 0,6 C 14,8 C 2,3 km/h (1 Bft)
18.09.2019 18:00 14,9 C 9,6 C 15,6 C 38 % 1018,7 hPa 0,0 l/m 7,1 km/h (2 Bft) W 270 0,7 C 14,5 C 3,3 km/h (1 Bft)
18.09.2019 17:58 14,9 C 10,7 C 15,6 C 37 % 1018,7 hPa 0,0 l/m 8,0 km/h (2 Bft) W 270 0,3 C 14,0 C 7,0 km/h (2 Bft)
18.09.2019 17:56 14,9 C 11,3 C 15,6 C 37 % 1018,7 hPa 0,0 l/m 8,9 km/h (2 Bft) W-NW 292 0,3 C 13,5 C 6,8 km/h (2 Bft)
18.09.2019 17:54 14,8 C 11,5 C 15,6 C 37 % 1018,7 hPa 0,0 l/m 9,0 km/h (2 Bft) W-NW 292 0,3 C 13,4 C 11,8 km/h (2 Bft)
18.09.2019 17:52 14,9 C 11,5 C 15,6 C 37 % 1018,7 hPa 0,0 l/m 8,7 km/h (2 Bft) W-NW 292 0,3 C 13,6 C 14,7 km/h (3 Bft)
18.09.2019 17:50 15,0 C 11,4 C 15,6 C 37 % 1018,7 hPa 0,0 l/m 8,4 km/h (2 Bft) NW 315 0,4 C 13,9 C 12,2 km/h (2 Bft)
18.09.2019 17:48 15,0 C 11,5 C 15,6 C 37 % 1018,7 hPa 0,0 l/m 7,6 km/h (2 Bft) W-NW 292 0,4 C 14,3 C 10,4 km/h (2 Bft)
18.09.2019 17:46 15,1 C 11,6 C 15,6 C 37 % 1018,7 hPa 0,0 l/m 7,2 km/h (2 Bft) W-NW 292 0,5 C 14,6 C 16,2 km/h (3 Bft)
18.09.2019 17:44 15,3 C 11,8 C 15,6 C 37 % 1018,7 hPa 0,0 l/m 6,8 km/h (2 Bft) W-NW 292 0,7 C 15,1 C 12,9 km/h (3 Bft)
18.09.2019 17:42 15,4 C 12,0 C 15,6 C 37 % 1018,7 hPa 0,0 l/m 6,0 km/h (2 Bft) W-NW 292 0,8 C 15,4 C 6,0 km/h (2 Bft)
18.09.2019 17:40 15,5 C 12,3 C 15,6 C 37 % 1018,7 hPa 0,0 l/m 6,0 km/h (2 Bft) W 270 0,9 C 15,5 C 8,9 km/h (2 Bft)
18.09.2019 17:38 15,5 C 13,3 C 15,6 C 37 % 1018,7 hPa 0,0 l/m 5,1 km/h (1 Bft) NW 315 0,9 C 15,5 C 15,8 km/h (3 Bft)
18.09.2019 17:36 15,5 C 14,0 C 15,6 C 37 % 1018,7 hPa 0,0 l/m 5,3 km/h (1 Bft) W-SW 247 0,9 C 15,5 C 5,8 km/h (2 Bft)
18.09.2019 17:34 15,5 C 14,2 C 15,6 C 37 % 1018,4 hPa 0,0 l/m 6,0 km/h (2 Bft) W 270 0,9 C 15,5 C 20,1 km/h (4 Bft)
18.09.2019 17:32 15,6 C 14,3 C 15,6 C 37 % 1018,4 hPa 0,0 l/m 6,4 km/h (2 Bft) S-SW 202 1,0 C 15,6 C 5,8 km/h (2 Bft)
18.09.2019 17:30 15,6 C 14,1 C 15,6 C 37 % 1018,4 hPa 0,0 l/m 7,1 km/h (2 Bft) W 270 1,0 C 15,2 C 7,7 km/h (2 Bft)
18.09.2019 17:28 15,6 C 14,0 C 15,6 C 37 % 1018,4 hPa 0,0 l/m 8,0 km/h (2 Bft) W 270 1,0 C 14,7 C 4,6 km/h (1 Bft)
18.09.2019 17:26 15,5 C 15,4 C 15,6 C 37 % 1018,4 hPa 0,0 l/m 8,4 km/h (2 Bft) W-NW 292 0,9 C 14,4 C 9,7 km/h (2 Bft)
18.09.2019 17:24 15,5 C 16,5 C 15,6 C 37 % 1018,4 hPa 0,0 l/m 8,4 km/h (2 Bft) W 270 0,9 C 14,4 C 11,0 km/h (2 Bft)
18.09.2019 17:22 15,5 C 17,2 C 15,6 C 37 % 1018,4 hPa 0,0 l/m 7,2 km/h (2 Bft) SW 225 0,9 C 15,1 C 18,5 km/h (3 Bft)
18.09.2019 17:20 15,6 C 18,2 C 15,6 C 37 % 1018,4 hPa 0,0 l/m 6,4 km/h (2 Bft) W 270 1,0 C 15,6 C 13,1 km/h (3 Bft)
18.09.2019 17:18 15,6 C 18,0 C 15,6 C 37 % 1018,4 hPa 0,0 l/m 6,8 km/h (2 Bft) W-NW 292 1,0 C 15,4 C 16,8 km/h (3 Bft)
18.09.2019 17:16 15,6 C 18,2 C 15,6 C 37 % 1018,4 hPa 0,0 l/m 7,1 km/h (2 Bft) W 270 1,0 C 15,2 C 7,5 km/h (2 Bft)
18.09.2019 17:14 15,6 C 18,6 C 15,5 C 37 % 1018,7 hPa 0,0 l/m 8,4 km/h (2 Bft) W-NW 292 1,0 C 14,5 C 8,7 km/h (2 Bft)
18.09.2019 17:12 15,6 C 18,6 C 15,5 C 37 % 1018,7 hPa 0,0 l/m 9,7 km/h (2 Bft) S-SW 202 1,0 C 13,9 C 2,1 km/h (1 Bft)
18.09.2019 17:10 15,6 C 18,0 C 15,5 C 37 % 1018,7 hPa 0,0 l/m 10,9 km/h (2 Bft) W 270 1,0 C 13,4 C 10,2 km/h (2 Bft)
18.09.2019 17:08 15,6 C 18,0 C 15,5 C 37 % 1018,7 hPa 0,0 l/m 10,5 km/h (2 Bft) W 270 1,0 C 13,6 C 12,4 km/h (3 Bft)
18.09.2019 17:06 15,6 C 18,2 C 15,5 C 37 % 1018,7 hPa 0,0 l/m 10,6 km/h (2 Bft) W-NW 292 1,0 C 13,5 C 13,9 km/h (3 Bft)
18.09.2019 17:04 15,6 C 18,6 C 15,5 C 37 % 1018,7 hPa 0,0 l/m 9,7 km/h (2 Bft) W-NW 292 1,0 C 13,9 C 23,0 km/h (4 Bft)
18.09.2019 17:02 15,7 C 18,6 C 15,5 C 37 % 1018,7 hPa 0,0 l/m 8,7 km/h (2 Bft) W 270 1,1 C 14,5 C 15,3 km/h (3 Bft)
18.09.2019 17:00 15,8 C 19,0 C 15,5 C 38 % 1018,7 hPa 0,0 l/m 7,9 km/h (2 Bft) W 270 1,5 C 15,0 C 13,1 km/h (3 Bft)
18.09.2019 16:58 15,8 C 19,2 C 15,5 C 38 % 1018,7 hPa 0,0 l/m 8,7 km/h (2 Bft) W-SW 247 1,5 C 14,6 C 10,4 km/h (2 Bft)
18.09.2019 16:56 15,7 C 19,6 C 15,4 C 38 % 1018,7 hPa 0,0 l/m 9,3 km/h (2 Bft) W-NW 292 1,4 C 14,2 C 17,8 km/h (3 Bft)
18.09.2019 16:54 15,8 C 20,1 C 15,4 C 38 % 1018,5 hPa 0,0 l/m 9,7 km/h (2 Bft) N-NW 337 1,5 C 14,1 C 7,1 km/h (2 Bft)
18.09.2019 16:52 15,8 C 19,9 C 15,4 C 38 % 1018,5 hPa 0,0 l/m 9,7 km/h (2 Bft) W-NW 292 1,5 C 14,1 C 14,7 km/h (3 Bft)
18.09.2019 16:50 15,8 C 19,9 C 15,4 C 38 % 1018,5 hPa 0,0 l/m 9,7 km/h (2 Bft) N-NW 337 1,5 C 14,1 C 5,8 km/h (2 Bft)
18.09.2019 16:48 15,8 C 20,0 C 15,4 C 38 % 1018,5 hPa 0,0 l/m 9,8 km/h (2 Bft) W-NW 292 1,5 C 14,1 C 11,0 km/h (2 Bft)
18.09.2019 16:46 15,8 C 19,3 C 15,4 C 38 % 1018,5 hPa 0,0 l/m 9,8 km/h (2 Bft) NW 315 1,5 C 14,1 C 20,3 km/h (4 Bft)
18.09.2019 16:44 16,0 C 20,9 C 15,4 C 39 % 1018,5 hPa 0,0 l/m 9,5 km/h (2 Bft) W-NW 292 2,1 C 14,4 C 15,6 km/h (3 Bft)
18.09.2019 16:42 16,1 C 21,5 C 15,4 C 39 % 1018,5 hPa 0,0 l/m 9,2 km/h (2 Bft) W-NW 292 2,1 C 14,7 C 12,0 km/h (2 Bft)
18.09.2019 16:40 16,0 C 20,9 C 15,3 C 39 % 1018,5 hPa 0,0 l/m 9,0 km/h (2 Bft) W-NW 292 2,1 C 14,7 C 13,5 km/h (3 Bft)
18.09.2019 16:38 16,0 C 20,6 C 15,3 C 39 % 1018,5 hPa 0,0 l/m 9,5 km/h (2 Bft) W-NW 292 2,1 C 14,4 C 12,9 km/h (3 Bft)
18.09.2019 16:36 15,9 C 20,4 C 15,3 C 38 % 1018,5 hPa 0,0 l/m 9,5 km/h (2 Bft) W-NW 292 1,6 C 14,3 C 16,0 km/h (3 Bft)
18.09.2019 16:34 16,0 C 20,4 C 15,3 C 39 % 1018,8 hPa 0,0 l/m 8,7 km/h (2 Bft) W 270 2,1 C 14,8 C 9,7 km/h (2 Bft)
18.09.2019 16:32 16,1 C 21,1 C 15,3 C 39 % 1018,8 hPa 0,0 l/m 8,9 km/h (2 Bft) NW 315 2,1 C 14,8 C 12,9 km/h (3 Bft)
18.09.2019 16:30 16,2 C 22,1 C 15,3 C 40 % 1018,8 hPa 0,0 l/m 9,3 km/h (2 Bft) NW 315 2,6 C 14,7 C 10,0 km/h (2 Bft)
18.09.2019 16:28 16,2 C 22,5 C 15,3 C 40 % 1018,8 hPa 0,0 l/m 9,2 km/h (2 Bft) W 270 2,6 C 14,8 C 14,7 km/h (3 Bft)
18.09.2019 16:26 16,2 C 22,4 C 15,3 C 40 % 1018,8 hPa 0,0 l/m 8,9 km/h (2 Bft) W 270 2,6 C 14,9 C 14,5 km/h (3 Bft)
18.09.2019 16:24 16,3 C 22,8 C 15,3 C 39 % 1018,8 hPa 0,0 l/m 8,5 km/h (2 Bft) W-NW 292 2,3 C 15,2 C 12,6 km/h (3 Bft)
18.09.2019 16:22 16,2 C 23,1 C 15,3 C 39 % 1018,8 hPa 0,0 l/m 7,4 km/h (2 Bft) W-NW 292 2,2 C 15,7 C 8,9 km/h (2 Bft)
18.09.2019 16:20 16,2 C 22,6 C 15,2 C 39 % 1018,8 hPa 0,0 l/m 6,9 km/h (2 Bft) W-NW 292 2,2 C 15,9 C 8,5 km/h (2 Bft)
18.09.2019 16:18 16,2 C 22,4 C 15,2 C 39 % 1018,8 hPa 0,0 l/m 6,6 km/h (2 Bft) NW 315 2,2 C 16,1 C 19,7 km/h (3 Bft)
18.09.2019 16:16 16,2 C 23,1 C 15,2 C 39 % 1018,8 hPa 0,0 l/m 5,5 km/h (1 Bft) NW 315 2,2 C 16,2 C 13,7 km/h (3 Bft)
18.09.2019 16:14 16,4 C 23,7 C 15,2 C 39 % 1018,6 hPa 0,0 l/m 6,0 km/h (2 Bft) W-NW 292 2,4 C 16,4 C 8,9 km/h (2 Bft)
18.09.2019 16:12 16,4 C 24,6 C 15,2 C 39 % 1018,6 hPa 0,0 l/m 6,8 km/h (2 Bft) W-SW 247 2,4 C 16,2 C 10,0 km/h (2 Bft)
18.09.2019 16:10 16,3 C 24,9 C 15,3 C 38 % 1018,6 hPa 0,0 l/m 7,1 km/h (2 Bft) NW 315 2,0 C 15,9 C 3,7 km/h (1 Bft)
18.09.2019 16:08 16,3 C 24,5 C 15,2 C 38 % 1018,6 hPa 0,0 l/m 7,6 km/h (2 Bft) W-SW 247 2,0 C 15,7 C 8,7 km/h (2 Bft)
18.09.2019 16:06 16,3 C 24,4 C 15,2 C 38 % 1018,6 hPa 0,0 l/m 7,7 km/h (2 Bft) NW 315 2,0 C 15,6 C 5,4 km/h (1 Bft)
18.09.2019 16:04 16,2 C 22,8 C 15,2 C 38 % 1018,6 hPa 0,0 l/m 7,7 km/h (2 Bft) W-NW 292 1,9 C 15,5 C 11,8 km/h (2 Bft)
18.09.2019 16:02 16,2 C 22,3 C 15,2 C 38 % 1018,6 hPa 0,0 l/m 7,1 km/h (2 Bft) SW 225 1,9 C 15,8 C 16,6 km/h (3 Bft)
18.09.2019 16:00 16,4 C 23,2 C 15,1 C 38 % 1018,6 hPa 0,0 l/m 6,6 km/h (2 Bft) NW 315 2,1 C 16,3 C 10,2 km/h (2 Bft)
18.09.2019 15:58 16,4 C 23,8 C 15,1 C 38 % 1018,6 hPa 0,0 l/m 6,6 km/h (2 Bft) SW 225 2,1 C 16,3 C 8,7 km/h (2 Bft)
18.09.2019 15:56 16,5 C 23,9 C 15,1 C 38 % 1018,6 hPa 0,0 l/m 7,4 km/h (2 Bft) W 270 2,1 C 16,0 C 7,5 km/h (2 Bft)
18.09.2019 15:54 16,6 C 23,5 C 15,1 C 38 % 1018,9 hPa 0,0 l/m 7,6 km/h (2 Bft) S 180 2,2 C 16,0 C 11,6 km/h (2 Bft)
18.09.2019 15:52 16,6 C 25,1 C 15,2 C 39 % 1018,9 hPa 0,0 l/m 7,7 km/h (2 Bft) S 180 2,6 C 15,9 C 4,2 km/h (1 Bft)
18.09.2019 15:50 16,6 C 25,6 C 15,2 C 39 % 1018,9 hPa 0,0 l/m 8,5 km/h (2 Bft) SW 225 2,6 C 15,5 C 9,7 km/h (2 Bft)
18.09.2019 15:48 16,4 C 24,5 C 15,2 C 38 % 1018,9 hPa 0,0 l/m 9,0 km/h (2 Bft) W-SW 247 2,1 C 15,1 C 11,0 km/h (2 Bft)
18.09.2019 15:46 16,3 C 24,6 C 15,2 C 38 % 1018,9 hPa 0,0 l/m 9,3 km/h (2 Bft) W 270 2,0 C 14,9 C 15,6 km/h (3 Bft)
18.09.2019 15:44 16,4 C 24,7 C 15,2 C 37 % 1018,9 hPa 0,0 l/m 8,7 km/h (2 Bft) S-SO 157 1,7 C 15,2 C 4,8 km/h (1 Bft)
18.09.2019 15:42 16,4 C 25,4 C 15,2 C 37 % 1018,9 hPa 0,0 l/m 10,1 km/h (2 Bft) SW 225 1,7 C 14,6 C 12,9 km/h (3 Bft)
18.09.2019 15:40 16,4 C 26,0 C 15,2 C 37 % 1018,9 hPa 0,0 l/m 10,1 km/h (2 Bft) S-SO 157 1,7 C 14,6 C 17,4 km/h (3 Bft)
18.09.2019 15:38 16,4 C 25,2 C 15,2 C 37 % 1018,9 hPa 0,0 l/m 10,3 km/h (2 Bft) SO 135 1,7 C 14,5 C 14,5 km/h (3 Bft)
18.09.2019 15:36 16,3 C 24,5 C 15,2 C 38 % 1018,9 hPa 0,0 l/m 10,0 km/h (2 Bft) SO 135 2,0 C 14,6 C 18,5 km/h (3 Bft)
18.09.2019 15:34 16,3 C 25,6 C 15,2 C 38 % 1018,8 hPa 0,0 l/m 10,1 km/h (2 Bft) SO 135 2,0 C 14,5 C 7,5 km/h (2 Bft)
18.09.2019 15:32 16,4 C 27,0 C 15,2 C 39 % 1018,8 hPa 0,0 l/m 10,1 km/h (2 Bft) S-SO 157 2,4 C 14,6 C 15,3 km/h (3 Bft)
18.09.2019 15:30 16,4 C 27,2 C 15,2 C 39 % 1018,8 hPa 0,0 l/m 10,0 km/h (2 Bft) S-SO 157 2,4 C 14,7 C 16,6 km/h (3 Bft)
18.09.2019 15:28 16,4 C 26,7 C 15,2 C 39 % 1018,8 hPa 0,0 l/m 9,7 km/h (2 Bft) S-SO 157 2,4 C 14,8 C 21,8 km/h (4 Bft)
18.09.2019 15:26 16,3 C 25,4 C 15,2 C 41 % 1018,8 hPa 0,0 l/m 8,4 km/h (2 Bft) S-SO 157 3,0 C 15,3 C 11,8 km/h (2 Bft)
18.09.2019 15:24 16,3 C 25,4 C 15,2 C 41 % 1018,8 hPa 0,0 l/m 8,5 km/h (2 Bft) W-NW 292 3,0 C 15,2 C 15,8 km/h (3 Bft)
18.09.2019 15:22 15,9 C 23,9 C 15,2 C 40 % 1018,8 hPa 0,0 l/m 8,0 km/h (2 Bft) S-SW 202 2,3 C 15,0 C 13,5 km/h (3 Bft)
18.09.2019 15:20 16,0 C 23,9 C 15,2 C 41 % 1018,8 hPa 0,0 l/m 7,6 km/h (2 Bft) W 270 2,8 C 15,4 C 12,4 km/h (3 Bft)
18.09.2019 15:18 16,0 C 24,2 C 15,2 C 40 % 1018,8 hPa 0,0 l/m 7,1 km/h (2 Bft) O-NO 67 2,4 C 15,6 C 9,1 km/h (2 Bft)
18.09.2019 15:16 16,1 C 24,2 C 15,2 C 40 % 1018,8 hPa 0,0 l/m 7,9 km/h (2 Bft) S-SW 202 2,5 C 15,3 C 8,7 km/h (2 Bft)
18.09.2019 15:14 16,1 C 26,4 C 15,2 C 40 % 1019,1 hPa 0,0 l/m 7,7 km/h (2 Bft) S-SO 157 2,5 C 15,4 C 7,5 km/h (2 Bft)
18.09.2019 15:12 16,0 C 26,7 C 15,2 C 40 % 1019,1 hPa 0,0 l/m 7,9 km/h (2 Bft) SO 135 2,4 C 15,2 C 17,4 km/h (3 Bft)
18.09.2019 15:10 16,0 C 26,0 C 15,2 C 41 % 1019,1 hPa 0,0 l/m 7,1 km/h (2 Bft) O-SO 112 2,8 C 15,6 C 11,2 km/h (2 Bft)
18.09.2019 15:08 15,7 C 26,2 C 15,2 C 40 % 1019,1 hPa 0,0 l/m 7,9 km/h (2 Bft) W-NW 292 2,1 C 14,9 C 4,2 km/h (1 Bft)
18.09.2019 15:06 15,7 C 25,3 C 15,2 C 40 % 1019,1 hPa 0,0 l/m 8,0 km/h (2 Bft) W 270 2,1 C 14,8 C 16,0 km/h (3 Bft)
18.09.2019 15:04 15,7 C 24,2 C 15,2 C 41 % 1019,1 hPa 0,0 l/m 7,7 km/h (2 Bft) W 270 2,5 C 15,0 C 9,8 km/h (2 Bft)
18.09.2019 15:02 15,7 C 25,1 C 15,2 C 41 % 1019,1 hPa 0,0 l/m 7,2 km/h (2 Bft) W 270 2,5 C 15,3 C 9,3 km/h (2 Bft)
18.09.2019 15:00 15,7 C 25,8 C 15,2 C 41 % 1019,1 hPa 0,0 l/m 7,6 km/h (2 Bft) W-NW 292 2,5 C 15,0 C 8,5 km/h (2 Bft)
18.09.2019 14:58 15,7 C 24,2 C 15,2 C 41 % 1019,1 hPa 0,0 l/m 9,5 km/h (2 Bft) NW 315 2,5 C 14,1 C 19,7 km/h (3 Bft)
18.09.2019 14:56 15,6 C 24,8 C 15,2 C 40 % 1019,1 hPa 0,0 l/m 9,3 km/h (2 Bft) N-NO 22 2,1 C 14,1 C 12,0 km/h (2 Bft)
18.09.2019 14:54 15,7 C 24,1 C 15,2 C 40 % 1018,9 hPa 0,0 l/m 9,8 km/h (2 Bft) NW 315 2,1 C 14,0 C 16,0 km/h (3 Bft)
18.09.2019 14:52 15,9 C 24,3 C 15,2 C 40 % 1018,9 hPa 0,0 l/m 9,3 km/h (2 Bft) O-NO 67 2,3 C 14,4 C 8,5 km/h (2 Bft)
18.09.2019 14:50 15,9 C 24,9 C 15,2 C 40 % 1018,9 hPa 0,0 l/m 9,7 km/h (2 Bft) S-SO 157 2,3 C 14,2 C 12,7 km/h (3 Bft)
18.09.2019 14:48 15,7 C 23,5 C 15,2 C 40 % 1018,9 hPa 0,0 l/m 8,2 km/h (2 Bft) W-NW 292 2,1 C 14,7 C 22,2 km/h (4 Bft)
18.09.2019 14:46 15,8 C 23,8 C 15,2 C 40 % 1018,9 hPa 0,0 l/m 6,8 km/h (2 Bft) SW 225 2,2 C 15,6 C 12,2 km/h (2 Bft)
18.09.2019 14:44 15,8 C 24,7 C 15,2 C 40 % 1018,9 hPa 0,0 l/m 6,3 km/h (2 Bft) W-NW 292 2,2 C 15,8 C 13,9 km/h (3 Bft)
18.09.2019 14:42 15,8 C 25,3 C 15,2 C 40 % 1018,9 hPa 0,0 l/m 5,5 km/h (1 Bft) S-SW 202 2,2 C 15,8 C 7,1 km/h (2 Bft)
18.09.2019 14:40 15,9 C 25,8 C 15,2 C 41 % 1018,9 hPa 0,0 l/m 5,0 km/h (1 Bft) W 270 2,7 C 15,9 C 9,5 km/h (2 Bft)
18.09.2019 14:38 15,9 C 25,2 C 15,2 C 41 % 1018,9 hPa 0,0 l/m 6,0 km/h (2 Bft) W-NW 292 2,7 C 15,9 C 15,1 km/h (3 Bft)
18.09.2019 14:36 16,0 C 26,6 C 15,2 C 42 % 1018,9 hPa 0,0 l/m 5,3 km/h (1 Bft) S-SW 202 3,1 C 16,0 C 10,6 km/h (2 Bft)
18.09.2019 14:34 15,9 C 26,6 C 15,2 C 41 % 1019,2 hPa 0,0 l/m 5,3 km/h (1 Bft) N-NW 337 2,7 C 15,9 C 3,9 km/h (1 Bft)
18.09.2019 14:32 15,9 C 25,3 C 15,2 C 41 % 1019,2 hPa 0,0 l/m 5,6 km/h (1 Bft) W-NW 292 2,7 C 15,9 C 8,5 km/h (2 Bft)
18.09.2019 14:30 16,0 C 24,6 C 15,2 C 41 % 1019,2 hPa 0,0 l/m 6,8 km/h (2 Bft) S-SW 202 2,8 C 15,8 C 7,7 km/h (2 Bft)
18.09.2019 14:28 15,8 C 24,5 C 15,2 C 40 % 1019,2 hPa 0,0 l/m 6,9 km/h (2 Bft) NW 315 2,2 C 15,5 C 15,6 km/h (3 Bft)
18.09.2019 14:26 15,9 C 25,4 C 15,2 C 40 % 1019,2 hPa 0,0 l/m 7,6 km/h (2 Bft) SO 135 2,3 C 15,3 C 3,7 km/h (1 Bft)
18.09.2019 14:24 15,8 C 25,7 C 15,2 C 40 % 1019,2 hPa 0,0 l/m 8,5 km/h (2 Bft) SW 225 2,2 C 14,7 C 7,3 km/h (2 Bft)
18.09.2019 14:22 15,8 C 26,4 C 15,1 C 40 % 1019,2 hPa 0,0 l/m 9,2 km/h (2 Bft) S-SW 202 2,2 C 14,4 C 10,4 km/h (2 Bft)
18.09.2019 14:20 15,5 C 26,7 C 15,1 C 40 % 1019,2 hPa 0,0 l/m 10,0 km/h (2 Bft) SO 135 2,0 C 13,7 C 11,4 km/h (2 Bft)
18.09.2019 14:18 15,5 C 25,6 C 15,1 C 40 % 1019,2 hPa 0,0 l/m 9,7 km/h (2 Bft) S-SO 157 2,0 C 13,8 C 7,7 km/h (2 Bft)
18.09.2019 14:16 15,5 C 23,9 C 15,1 C 41 % 1019,2 hPa 0,0 l/m 8,7 km/h (2 Bft) S-SW 202 2,3 C 14,3 C 8,7 km/h (2 Bft)
18.09.2019 14:14 15,4 C 23,8 C 15,1 C 42 % 1020,0 hPa 0,0 l/m 7,7 km/h (2 Bft) W-NW 292 2,6 C 14,7 C 23,8 km/h (4 Bft)
18.09.2019 14:12 15,5 C 23,7 C 15,1 C 42 % 1020,0 hPa 0,0 l/m 6,8 km/h (2 Bft) S-SO 157 2,6 C 15,3 C 16,6 km/h (3 Bft)
18.09.2019 14:10 15,5 C 24,2 C 15,1 C 42 % 1020,0 hPa 0,0 l/m 5,5 km/h (1 Bft) W-NW 292 2,6 C 15,5 C 21,2 km/h (4 Bft)
18.09.2019 14:08 15,6 C 25,5 C 15,1 C 42 % 1020,0 hPa 0,0 l/m 4,2 km/h (1 Bft) W 270 2,7 C 15,6 C 3,3 km/h (1 Bft)
18.09.2019 14:06 15,7 C 26,0 C 15,1 C 43 % 1020,0 hPa 0,0 l/m 4,5 km/h (1 Bft) S-SO 157 3,2 C 15,7 C 8,7 km/h (2 Bft)
18.09.2019 14:04 15,6 C 25,3 C 15,1 C 44 % 1020,0 hPa 0,0 l/m 4,3 km/h (1 Bft) W 270 3,4 C 15,6 C 4,2 km/h (1 Bft)
18.09.2019 14:02 15,6 C 26,9 C 15,1 C 44 % 1020,0 hPa 0,0 l/m 5,0 km/h (1 Bft) SO 135 3,4 C 15,6 C 4,2 km/h (1 Bft)
18.09.2019 14:00 15,5 C 26,4 C 15,1 C 44 % 1020,0 hPa 0,0 l/m 5,0 km/h (1 Bft) W 270 3,3 C 15,5 C 10,6 km/h (2 Bft)
18.09.2019 13:58 15,6 C 25,5 C 15,1 C 45 % 1020,0 hPa 0,0 l/m 5,5 km/h (1 Bft) O-NO 67 3,7 C 15,6 C 3,9 km/h (1 Bft)
18.09.2019 13:56 15,6 C 24,1 C 15,1 C 45 % 1020,0 hPa 0,0 l/m 5,1 km/h (1 Bft) N-NO 22 3,7 C 15,6 C 14,5 km/h (3 Bft)
18.09.2019 13:54 15,5 C 24,4 C 15,1 C 45 % 1019,5 hPa 0,0 l/m 5,3 km/h (1 Bft) S-SO 157 3,6 C 15,5 C 5,4 km/h (1 Bft)
18.09.2019 13:52 15,5 C 26,1 C 15,1 C 45 % 1019,5 hPa 0,0 l/m 6,3 km/h (2 Bft) SW 225 3,6 C 15,5 C 7,5 km/h (2 Bft)
18.09.2019 13:50 15,7 C 25,9 C 15,1 C 46 % 1019,5 hPa 0,0 l/m 6,3 km/h (2 Bft) NO 45 4,1 C 15,7 C 9,3 km/h (2 Bft)
18.09.2019 13:48 15,7 C 25,3 C 15,1 C 47 % 1019,5 hPa 0,0 l/m 6,4 km/h (2 Bft) S-SW 202 4,4 C 15,7 C 10,8 km/h (2 Bft)
18.09.2019 13:46 15,7 C 25,0 C 15,1 C 47 % 1019,5 hPa 0,0 l/m 7,4 km/h (2 Bft) W-SW 247 4,4 C 15,2 C 7,9 km/h (2 Bft)
18.09.2019 13:44 15,5 C 23,6 C 15,1 C 47 % 1019,5 hPa 0,0 l/m 7,6 km/h (2 Bft) NW 315 4,2 C 14,8 C 12,6 km/h (3 Bft)
18.09.2019 13:42 15,2 C 23,7 C 15,1 C 46 % 1019,5 hPa 0,0 l/m 7,2 km/h (2 Bft) SO 135 3,7 C 14,8 C 12,9 km/h (3 Bft)
18.09.2019 13:40 15,2 C 25,4 C 15,1 C 46 % 1019,5 hPa 0,0 l/m 6,9 km/h (2 Bft) O-SO 112 3,7 C 14,9 C 10,4 km/h (2 Bft)
18.09.2019 13:38 15,2 C 24,5 C 15,1 C 46 % 1019,5 hPa 0,0 l/m 7,1 km/h (2 Bft) S-SO 157 3,7 C 14,8 C 6,0 km/h (2 Bft)
18.09.2019 13:36 15,3 C 24,2 C 15,1 C 46 % 1019,5 hPa 0,0 l/m 7,6 km/h (2 Bft) S-SO 157 3,8 C 14,6 C 18,2 km/h (3 Bft)
18.09.2019 13:34 15,2 C 24,9 C 15,1 C 46 % 1019,7 hPa 0,0 l/m 7,2 km/h (2 Bft) S-SO 157 3,7 C 14,8 C 5,2 km/h (1 Bft)
18.09.2019 13:32 15,2 C 23,8 C 15,1 C 47 % 1019,7 hPa 0,0 l/m 7,2 km/h (2 Bft) S-SO 157 4,0 C 14,8 C 13,9 km/h (3 Bft)
18.09.2019 13:30 15,2 C 24,8 C 15,1 C 47 % 1019,7 hPa 0,0 l/m 7,9 km/h (2 Bft) NW 315 4,0 C 14,4 C 11,8 km/h (2 Bft)
18.09.2019 13:28 15,1 C 24,2 C 15,1 C 47 % 1019,7 hPa 0,0 l/m 8,9 km/h (2 Bft) W-SW 247 3,9 C 13,7 C 18,3 km/h (3 Bft)
18.09.2019 13:26 15,2 C 24,1 C 15,1 C 47 % 1019,7 hPa 0,0 l/m 9,0 km/h (2 Bft) O-NO 67 4,0 C 13,8 C 12,0 km/h (2 Bft)
18.09.2019 13:24 15,1 C 24,4 C 15,1 C 48 % 1019,7 hPa 0,0 l/m 9,2 km/h (2 Bft) SO 135 4,2 C 13,6 C 9,5 km/h (2 Bft)
18.09.2019 13:22 15,2 C 23,4 C 15,1 C 48 % 1019,7 hPa 0,0 l/m 9,2 km/h (2 Bft) S 180 4,3 C 13,7 C 8,7 km/h (2 Bft)
18.09.2019 13:20 14,9 C 22,2 C 15,1 C 47 % 1019,7 hPa 0,0 l/m 9,7 km/h (2 Bft) W 270 3,7 C 13,1 C 15,1 km/h (3 Bft)
18.09.2019 13:18 14,7 C 21,7 C 15,1 C 47 % 1019,7 hPa 0,0 l/m 9,2 km/h (2 Bft) NW 315 3,5 C 13,2 C 17,6 km/h (3 Bft)
18.09.2019 13:16 14,7 C 20,8 C 15,1 C 47 % 1019,7 hPa 0,0 l/m 8,5 km/h (2 Bft) W-NW 292 3,5 C 13,5 C 19,1 km/h (3 Bft)
18.09.2019 13:14 14,8 C 23,1 C 15,1 C 47 % 1020,1 hPa 0,0 l/m 7,7 km/h (2 Bft) S-SW 202 3,6 C 14,1 C 7,3 km/h (2 Bft)
18.09.2019 13:12 14,6 C 24,1 C 15,1 C 47 % 1020,1 hPa 0,0 l/m 8,7 km/h (2 Bft) SW 225 3,4 C 13,3 C 9,3 km/h (2 Bft)
18.09.2019 13:10 14,6 C 23,7 C 15,1 C 47 % 1020,1 hPa 0,0 l/m 9,0 km/h (2 Bft) S-SW 202 3,4 C 13,2 C 18,5 km/h (3 Bft)
18.09.2019 13:08 14,6 C 23,4 C 15,1 C 47 % 1020,1 hPa 0,0 l/m 9,7 km/h (2 Bft) S-SO 157 3,4 C 12,8 C 24,3 km/h (4 Bft)
18.09.2019 13:06 14,6 C 22,8 C 15,1 C 47 % 1020,1 hPa 0,0 l/m 9,5 km/h (2 Bft) S-SO 157 3,4 C 12,9 C 8,1 km/h (2 Bft)
18.09.2019 13:04 14,8 C 21,0 C 15,1 C 48 % 1020,1 hPa 0,0 l/m 10,6 km/h (2 Bft) N-NW 337 3,9 C 12,6 C 7,3 km/h (2 Bft)
18.09.2019 13:02 14,6 C 22,4 C 15,1 C 48 % 1020,1 hPa 0,0 l/m 11,3 km/h (2 Bft) SW 225 3,7 C 12,1 C 22,0 km/h (4 Bft)
18.09.2019 13:00 14,6 C 22,6 C 15,1 C 48 % 1020,1 hPa 0,0 l/m 11,4 km/h (2 Bft) S-SO 157 3,7 C 12,1 C 24,7 km/h (4 Bft)
18.09.2019 12:58 14,6 C 22,4 C 15,1 C 49 % 1020,1 hPa 0,0 l/m 11,7 km/h (2 Bft) W-SW 247 4,0 C 11,9 C 17,8 km/h (3 Bft)
18.09.2019 12:56 14,7 C 22,8 C 15,1 C 49 % 1020,1 hPa 0,0 l/m 10,3 km/h (2 Bft) SW 225 4,1 C 12,6 C 8,1 km/h (2 Bft)
18.09.2019 12:54 14,8 C 22,4 C 15,1 C 49 % 1020,1 hPa 0,0 l/m 10,6 km/h (2 Bft) SO 135 4,2 C 12,6 C 16,8 km/h (3 Bft)
18.09.2019 12:52 14,5 C 22,9 C 15,1 C 49 % 1020,1 hPa 0,0 l/m 9,5 km/h (2 Bft) SO 135 3,9 C 12,8 C 7,5 km/h (2 Bft)
18.09.2019 12:50 14,8 C 23,8 C 15,1 C 50 % 1020,1 hPa 0,0 l/m 9,7 km/h (2 Bft) W 270 4,5 C 13,0 C 12,7 km/h (3 Bft)
18.09.2019 12:48 14,8 C 23,4 C 15,1 C 50 % 1020,1 hPa 0,0 l/m 8,5 km/h (2 Bft) W-NW 292 4,5 C 13,6 C 17,2 km/h (3 Bft)
18.09.2019 12:46 15,0 C 24,7 C 15,1 C 50 % 1020,1 hPa 0,0 l/m 8,9 km/h (2 Bft) SO 135 4,7 C 13,6 C 10,6 km/h (2 Bft)
18.09.2019 12:44 15,1 C 24,3 C 15,1 C 50 % 1020,1 hPa 0,0 l/m 9,0 km/h (2 Bft) NO 45 4,8 C 13,7 C 17,8 km/h (3 Bft)
18.09.2019 12:42 15,4 C 24,4 C 15,1 C 51 % 1020,1 hPa 0,0 l/m 8,9 km/h (2 Bft) W-NW 292 5,3 C 14,1 C 22,6 km/h (4 Bft)
18.09.2019 12:40 15,0 C 22,7 C 15,1 C 51 % 1020,1 hPa 0,0 l/m 8,4 km/h (2 Bft) S-SW 202 4,9 C 13,9 C 13,7 km/h (3 Bft)
18.09.2019 12:38 15,1 C 21,0 C 15,1 C 51 % 1020,1 hPa 0,0 l/m 8,7 km/h (2 Bft) N-NW 337 5,0 C 13,8 C 10,2 km/h (2 Bft)
18.09.2019 12:36 15,0 C 22,6 C 15,1 C 51 % 1020,1 hPa 0,0 l/m 8,2 km/h (2 Bft) SW 225 4,9 C 14,0 C 15,8 km/h (3 Bft)
18.09.2019 12:34 15,0 C 22,4 C 15,1 C 51 % 1020,8 hPa 0,0 l/m 7,6 km/h (2 Bft) S-SW 202 4,9 C 14,3 C 9,5 km/h (2 Bft)
18.09.2019 12:32 14,9 C 22,7 C 15,1 C 52 % 1020,8 hPa 0,0 l/m 9,3 km/h (2 Bft) W-SW 247 5,1 C 13,3 C 12,9 km/h (3 Bft)
18.09.2019 12:30 15,0 C 22,9 C 15,1 C 52 % 1020,8 hPa 0,0 l/m 10,1 km/h (2 Bft) S-SO 157 5,2 C 13,1 C 8,7 km/h (2 Bft)
18.09.2019 12:28 14,7 C 20,9 C 15,1 C 52 % 1020,8 hPa 0,0 l/m 10,6 km/h (2 Bft) SW 225 5,0 C 12,5 C 19,9 km/h (4 Bft)
18.09.2019 12:26 14,9 C 20,3 C 15,1 C 52 % 1020,8 hPa 0,0 l/m 10,3 km/h (2 Bft) SO 135 5,1 C 12,9 C 5,8 km/h (2 Bft)
18.09.2019 12:24 15,0 C 22,5 C 15,1 C 52 % 1020,8 hPa 0,0 l/m 11,4 km/h (2 Bft) S 180 5,2 C 12,5 C 12,9 km/h (3 Bft)
18.09.2019 12:22 14,5 C 19,8 C 15,1 C 52 % 1020,8 hPa 0,0 l/m 11,3 km/h (2 Bft) W-NW 292 4,8 C 12,0 C 25,7 km/h (4 Bft)
18.09.2019 12:20 14,7 C 20,6 C 15,1 C 52 % 1020,8 hPa 0,0 l/m 10,0 km/h (2 Bft) S 180 5,0 C 12,8 C 16,2 km/h (3 Bft)
18.09.2019 12:18 14,7 C 20,9 C 15,1 C 52 % 1020,8 hPa 0,0 l/m 8,4 km/h (2 Bft) SW 225 5,0 C 13,6 C 12,6 km/h (3 Bft)
18.09.2019 12:16 14,6 C 20,7 C 15,1 C 52 % 1020,8 hPa 0,0 l/m 8,0 km/h (2 Bft) O-NO 67 4,9 C 13,7 C 11,0 km/h (2 Bft)
18.09.2019 12:14 14,6 C 21,6 C 15,1 C 53 % 1020,6 hPa 0,0 l/m 8,0 km/h (2 Bft) S-SW 202 5,1 C 13,7 C 17,2 km/h (3 Bft)
18.09.2019 12:12 14,6 C 21,3 C 15,1 C 53 % 1020,6 hPa 0,0 l/m 7,4 km/h (2 Bft) S-SW 202 5,1 C 14,0 C 5,4 km/h (1 Bft)
18.09.2019 12:10 14,5 C 19,1 C 15,0 C 53 % 1020,6 hPa 0,0 l/m 7,4 km/h (2 Bft) S-SW 202 5,0 C 13,9 C 5,4 km/h (1 Bft)
18.09.2019 12:08 14,5 C 19,1 C 15,0 C 53 % 1020,6 hPa 0,0 l/m 7,4 km/h (2 Bft) S-SW 202 5,0 C 13,9 C 5,4 km/h (1 Bft)
18.09.2019 12:06 14,5 C 19,1 C 15,0 C 53 % 1020,6 hPa 0,0 l/m 7,4 km/h (2 Bft) S-SW 202 5,0 C 13,9 C 5,4 km/h (1 Bft)
18.09.2019 12:04 14,5 C 19,1 C 15,0 C 53 % 1020,6 hPa 0,0 l/m 7,4 km/h (2 Bft) S-SW 202 5,0 C 13,9 C 5,4 km/h (1 Bft)
18.09.2019 12:02 14,5 C 19,1 C 15,0 C 53 % 1020,6 hPa 0,0 l/m 7,9 km/h (2 Bft) NW 315 5,0 C 13,6 C 8,7 km/h (2 Bft)
18.09.2019 12:00 14,4 C 19,1 C 15,0 C 53 % 1020,6 hPa 0,0 l/m 7,4 km/h (2 Bft) S 180 4,9 C 13,8 C 12,7 km/h (3 Bft)
18.09.2019 11:58 14,4 C 18,3 C 15,0 C 53 % 1020,6 hPa 0,0 l/m 7,2 km/h (2 Bft) S-SW 202 4,9 C 13,9 C 5,2 km/h (1 Bft)
18.09.2019 11:56 14,0 C 15,7 C 15,0 C 53 % 1020,6 hPa 0,0 l/m 7,1 km/h (2 Bft) SO 135 4,6 C 13,6 C 8,5 km/h (2 Bft)
18.09.2019 11:54 14,1 C 16,2 C 15,0 C 53 % 1019,9 hPa 0,0 l/m 7,4 km/h (2 Bft) SW 225 4,7 C 13,5 C 17,6 km/h (3 Bft)
18.09.2019 11:52 14,4 C 17,7 C 15,0 C 53 % 1019,9 hPa 0,0 l/m 7,4 km/h (2 Bft) O-NO 67 4,9 C 13,8 C 14,3 km/h (3 Bft)
18.09.2019 11:50 14,4 C 17,9 C 15,0 C 53 % 1019,9 hPa 0,0 l/m 7,1 km/h (2 Bft) S-SW 202 4,9 C 14,0 C 6,6 km/h (2 Bft)
18.09.2019 11:48 14,7 C 17,9 C 15,0 C 53 % 1019,9 hPa 0,0 l/m 8,4 km/h (2 Bft) SW 225 5,2 C 13,6 C 12,7 km/h (3 Bft)
18.09.2019 11:46 14,6 C 17,9 C 15,0 C 54 % 1019,9 hPa 0,0 l/m 8,2 km/h (2 Bft) S-SW 202 5,4 C 13,6 C 6,2 km/h (2 Bft)
18.09.2019 11:44 14,5 C 18,5 C 15,0 C 53 % 1019,9 hPa 0,0 l/m 8,5 km/h (2 Bft) W-NW 292 5,0 C 13,3 C 16,6 km/h (3 Bft)
18.09.2019 11:42 14,4 C 18,7 C 15,0 C 54 % 1019,9 hPa 0,0 l/m 9,2 km/h (2 Bft) S-SW 202 5,2 C 12,8 C 11,0 km/h (2 Bft)
18.09.2019 11:40 14,4 C 18,1 C 15,0 C 54 % 1019,9 hPa 0,0 l/m 10,5 km/h (2 Bft) S-SW 202 5,2 C 12,2 C 7,3 km/h (2 Bft)
18.09.2019 11:38 14,1 C 16,9 C 15,0 C 53 % 1019,9 hPa 0,0 l/m 10,5 km/h (2 Bft) NO 45 4,7 C 11,9 C 11,6 km/h (2 Bft)
18.09.2019 11:36 14,5 C 17,4 C 15,0 C 54 % 1019,9 hPa 0,0 l/m 10,6 km/h (2 Bft) S-SO 157 5,3 C 12,3 C 14,1 km/h (3 Bft)
18.09.2019 11:34 14,5 C 18,4 C 15,0 C 54 % 1020,0 hPa 0,0 l/m 11,3 km/h (2 Bft) S-SO 157 5,3 C 12,0 C 12,9 km/h (3 Bft)
18.09.2019 11:32 14,1 C 18,6 C 15,0 C 54 % 1020,0 hPa 0,0 l/m 11,7 km/h (2 Bft) S-SO 157 4,9 C 11,4 C 16,6 km/h (3 Bft)
18.09.2019 11:30 14,0 C 18,0 C 15,0 C 54 % 1020,0 hPa 0,0 l/m 10,6 km/h (2 Bft) SW 225 4,8 C 11,7 C 18,7 km/h (3 Bft)
18.09.2019 11:28 14,0 C 17,8 C 15,0 C 54 % 1020,0 hPa 0,0 l/m 10,1 km/h (2 Bft) W-SW 247 4,8 C 12,0 C 11,0 km/h (2 Bft)
18.09.2019 11:26 14,0 C 17,9 C 14,9 C 54 % 1020,0 hPa 0,0 l/m 9,3 km/h (2 Bft) SW 225 4,8 C 12,4 C 13,5 km/h (3 Bft)
18.09.2019 11:24 14,1 C 17,7 C 14,9 C 55 % 1020,0 hPa 0,0 l/m 8,4 km/h (2 Bft) SW 225 5,2 C 12,9 C 17,0 km/h (3 Bft)
18.09.2019 11:22 13,9 C 17,7 C 14,9 C 55 % 1020,0 hPa 0,0 l/m 8,9 km/h (2 Bft) SO 135 5,0 C 12,5 C 26,5 km/h (4 Bft)
18.09.2019 11:20 13,9 C 17,2 C 14,9 C 55 % 1020,0 hPa 0,0 l/m 8,9 km/h (2 Bft) S-SO 157 5,0 C 12,5 C 7,9 km/h (2 Bft)
18.09.2019 11:18 13,9 C 16,9 C 14,9 C 55 % 1020,0 hPa 0,0 l/m 9,5 km/h (2 Bft) S 180 5,0 C 12,1 C 10,6 km/h (2 Bft)
18.09.2019 11:16 13,7 C 16,9 C 14,9 C 55 % 1020,0 hPa 0,0 l/m 9,3 km/h (2 Bft) W 270 4,8 C 12,0 C 7,0 km/h (2 Bft)
18.09.2019 11:14 13,7 C 16,6 C 15,0 C 55 % 1020,2 hPa 0,0 l/m 10,0 km/h (2 Bft) S-SW 202 4,8 C 11,7 C 13,7 km/h (3 Bft)
18.09.2019 11:12 13,3 C 16,6 C 15,0 C 55 % 1020,2 hPa 0,0 l/m 9,5 km/h (2 Bft) NW 315 4,5 C 11,5 C 17,4 km/h (3 Bft)
18.09.2019 11:10 13,1 C 16,0 C 15,0 C 55 % 1020,2 hPa 0,0 l/m 9,0 km/h (2 Bft) W 270 4,3 C 11,5 C 15,1 km/h (3 Bft)
18.09.2019 11:08 13,3 C 16,6 C 15,0 C 55 % 1020,2 hPa 0,0 l/m 8,2 km/h (2 Bft) S-SW 202 4,5 C 12,2 C 17,8 km/h (3 Bft)
18.09.2019 11:06 13,6 C 17,8 C 15,0 C 55 % 1020,2 hPa 0,0 l/m 8,5 km/h (2 Bft) S-SO 157 4,7 C 12,4 C 9,3 km/h (2 Bft)
18.09.2019 11:04 13,5 C 16,8 C 15,0 C 55 % 1020,2 hPa 0,0 l/m 8,5 km/h (2 Bft) S 180 4,6 C 12,2 C 12,6 km/h (3 Bft)
18.09.2019 11:02 13,4 C 16,8 C 15,0 C 55 % 1020,2 hPa 0,0 l/m 8,7 km/h (2 Bft) S-SW 202 4,5 C 12,0 C 11,2 km/h (2 Bft)
18.09.2019 11:00 13,2 C 16,2 C 15,0 C 56 % 1020,2 hPa 0,0 l/m 9,0 km/h (2 Bft) S-SW 202 4,6 C 11,6 C 18,3 km/h (3 Bft)
18.09.2019 10:58 13,1 C 15,9 C 15,0 C 56 % 1020,2 hPa 0,0 l/m 9,0 km/h (2 Bft) W-SW 247 4,5 C 11,5 C 6,6 km/h (2 Bft)
18.09.2019 10:56 13,3 C 15,3 C 15,0 C 57 % 1020,2 hPa 0,0 l/m 10,9 km/h (2 Bft) N-NO 22 5,0 C 10,8 C 15,6 km/h (3 Bft)
18.09.2019 10:54 13,0 C 14,7 C 15,0 C 57 % 1020,4 hPa 0,0 l/m 10,1 km/h (2 Bft) NW 315 4,7 C 10,9 C 7,3 km/h (2 Bft)
18.09.2019 10:52 13,0 C 15,0 C 15,0 C 57 % 1020,4 hPa 0,0 l/m 10,9 km/h (2 Bft) W-NW 292 4,7 C 10,5 C 14,3 km/h (3 Bft)
18.09.2019 10:50 12,6 C 14,5 C 14,9 C 58 % 1020,4 hPa 0,0 l/m 10,6 km/h (2 Bft) W 270 4,6 C 10,2 C 10,4 km/h (2 Bft)
18.09.2019 10:48 12,2 C 14,2 C 14,9 C 58 % 1020,4 hPa 0,0 l/m 9,8 km/h (2 Bft) W-SW 247 4,2 C 10,1 C 19,3 km/h (3 Bft)
18.09.2019 10:46 11,9 C 12,7 C 14,9 C 58 % 1020,4 hPa 0,0 l/m 7,9 km/h (2 Bft) SW 225 3,9 C 10,9 C 21,6 km/h (4 Bft)
18.09.2019 10:44 12,4 C 13,4 C 14,9 C 59 % 1020,4 hPa 0,0 l/m 7,1 km/h (2 Bft) NW 315 4,6 C 11,9 C 13,7 km/h (3 Bft)
18.09.2019 10:42 12,5 C 13,9 C 14,9 C 59 % 1020,4 hPa 0,0 l/m 6,8 km/h (2 Bft) SW 225 4,7 C 12,2 C 7,1 km/h (2 Bft)
18.09.2019 10:40 12,5 C 14,7 C 14,9 C 59 % 1020,4 hPa 0,0 l/m 5,8 km/h (2 Bft) S 180 4,7 C 12,5 C 14,9 km/h (3 Bft)
18.09.2019 10:38 12,5 C 14,1 C 14,9 C 59 % 1020,4 hPa 0,0 l/m 5,5 km/h (1 Bft) SW 225 4,7 C 12,5 C 4,2 km/h (1 Bft)
18.09.2019 10:36 12,6 C 14,7 C 14,9 C 60 % 1020,4 hPa 0,0 l/m 6,1 km/h (2 Bft) S-SW 202 5,0 C 12,6 C 9,7 km/h (2 Bft)
18.09.2019 10:34 12,6 C 15,0 C 14,9 C 60 % 1020,2 hPa 0,0 l/m 6,6 km/h (2 Bft) S-SW 202 5,0 C 12,5 C 8,7 km/h (2 Bft)
18.09.2019 10:32 12,5 C 15,2 C 14,9 C 60 % 1020,2 hPa 0,0 l/m 6,3 km/h (2 Bft) S-SW 202 5,0 C 12,5 C 7,7 km/h (2 Bft)
18.09.2019 10:30 12,3 C 14,5 C 14,9 C 60 % 1020,2 hPa 0,0 l/m 5,8 km/h (2 Bft) SO 135 4,8 C 12,3 C 8,9 km/h (2 Bft)
18.09.2019 10:28 12,4 C 14,1 C 14,9 C 60 % 1020,2 hPa 0,0 l/m 6,1 km/h (2 Bft) S-SO 157 4,9 C 12,4 C 10,6 km/h (2 Bft)
18.09.2019 10:26 12,5 C 15,1 C 14,9 C 61 % 1020,2 hPa 0,0 l/m 6,9 km/h (2 Bft) S-SW 202 5,2 C 12,2 C 9,8 km/h (2 Bft)
18.09.2019 10:24 12,3 C 15,1 C 14,9 C 60 % 1020,2 hPa 0,0 l/m 6,9 km/h (2 Bft) S 180 4,8 C 12,0 C 12,0 km/h (2 Bft)
18.09.2019 10:22 12,1 C 14,4 C 14,9 C 61 % 1020,2 hPa 0,0 l/m 8,5 km/h (2 Bft) W-NW 292 4,8 C 10,8 C 2,1 km/h (1 Bft)
18.09.2019 10:20 11,9 C 14,7 C 14,9 C 61 % 1020,2 hPa 0,0 l/m 9,5 km/h (2 Bft) SW 225 4,6 C 10,0 C 6,4 km/h (2 Bft)
18.09.2019 10:18 11,5 C 14,3 C 14,9 C 61 % 1020,2 hPa 0,0 l/m 9,7 km/h (2 Bft) S-SO 157 4,2 C 9,4 C 5,8 km/h (2 Bft)
18.09.2019 10:16 11,3 C 13,0 C 15,0 C 61 % 1020,2 hPa 0,0 l/m 8,9 km/h (2 Bft) SO 135 4,1 C 9,7 C 18,0 km/h (3 Bft)
18.09.2019 10:14 11,1 C 13,8 C 15,0 C 61 % 1020,8 hPa 0,0 l/m 7,9 km/h (2 Bft) S-SO 157 3,9 C 10,1 C 11,0 km/h (2 Bft)
18.09.2019 10:12 11,1 C 13,4 C 15,0 C 61 % 1020,8 hPa 0,0 l/m 8,0 km/h (2 Bft) S-SO 157 3,9 C 10,0 C 21,4 km/h (4 Bft)
18.09.2019 10:10 11,1 C 13,7 C 15,0 C 61 % 1020,8 hPa 0,0 l/m 7,6 km/h (2 Bft) O-SO 112 3,9 C 10,3 C 11,0 km/h (2 Bft)
18.09.2019 10:08 11,2 C 14,1 C 15,0 C 61 % 1020,8 hPa 0,0 l/m 6,8 km/h (2 Bft) S-SW 202 4,0 C 10,9 C 3,7 km/h (1 Bft)
18.09.2019 10:06 11,1 C 14,2 C 15,0 C 61 % 1020,8 hPa 0,0 l/m 7,9 km/h (2 Bft) SO 135 3,9 C 10,1 C 6,2 km/h (2 Bft)
18.09.2019 10:04 11,1 C 14,2 C 15,0 C 61 % 1020,8 hPa 0,0 l/m 7,7 km/h (2 Bft) S-SO 157 3,9 C 10,2 C 11,0 km/h (2 Bft)
18.09.2019 10:02 11,0 C 13,9 C 15,0 C 61 % 1020,8 hPa 0,0 l/m 7,4 km/h (2 Bft) S-SO 157 3,8 C 10,3 C 15,6 km/h (3 Bft)
18.09.2019 10:00 10,8 C 13,3 C 15,0 C 61 % 1020,8 hPa 0,0 l/m 6,0 km/h (2 Bft) SW 225 3,6 C 10,8 C 14,5 km/h (3 Bft)
18.09.2019 09:58 10,8 C 12,5 C 15,0 C 61 % 1020,8 hPa 0,0 l/m 5,5 km/h (1 Bft) S-SW 202 3,6 C 10,8 C 11,0 km/h (2 Bft)
18.09.2019 09:56 10,8 C 12,5 C 15,0 C 62 % 1020,8 hPa 0,0 l/m 6,0 km/h (2 Bft) S-SW 202 3,8 C 10,8 C 17,0 km/h (3 Bft)
18.09.2019 09:54 10,7 C 12,5 C 15,0 C 62 % 1020,6 hPa 0,0 l/m 6,3 km/h (2 Bft) SO 135 3,7 C 10,7 C 4,6 km/h (1 Bft)
18.09.2019 09:52 10,6 C 12,3 C 15,0 C 62 % 1020,6 hPa 0,0 l/m 6,4 km/h (2 Bft) O-SO 112 3,6 C 10,6 C 8,1 km/h (2 Bft)
18.09.2019 09:50 10,6 C 11,9 C 15,0 C 62 % 1020,6 hPa 0,0 l/m 6,6 km/h (2 Bft) SO 135 3,6 C 10,5 C 7,0 km/h (2 Bft)
18.09.2019 09:48 10,6 C 11,8 C 15,0 C 62 % 1020,6 hPa 0,0 l/m 7,4 km/h (2 Bft) W 270 3,6 C 9,9 C 4,6 km/h (1 Bft)
18.09.2019 09:46 10,5 C 12,4 C 15,0 C 62 % 1020,6 hPa 0,0 l/m 7,6 km/h (2 Bft) S-SW 202 3,5 C 9,6 C 11,6 km/h (2 Bft)
18.09.2019 09:44 10,5 C 12,7 C 15,0 C 62 % 1020,6 hPa 0,0 l/m 6,9 km/h (2 Bft) S-SO 157 3,5 C 10,2 C 18,9 km/h (3 Bft)
18.09.2019 09:42 10,5 C 12,7 C 15,0 C 62 % 1020,6 hPa 0,0 l/m 7,2 km/h (2 Bft) S-SO 157 3,5 C 9,9 C 12,0 km/h (2 Bft)
18.09.2019 09:40 10,5 C 12,9 C 15,0 C 62 % 1020,6 hPa 0,0 l/m 7,1 km/h (2 Bft) S-SO 157 3,5 C 10,0 C 7,5 km/h (2 Bft)
18.09.2019 09:38 10,4 C 12,7 C 15,0 C 62 % 1020,6 hPa 0,0 l/m 7,2 km/h (2 Bft) S 180 3,4 C 9,8 C 7,5 km/h (2 Bft)
18.09.2019 09:36 10,4 C 12,4 C 15,0 C 62 % 1020,6 hPa 0,0 l/m 7,4 km/h (2 Bft) S-SO 157 3,4 C 9,7 C 9,5 km/h (2 Bft)
18.09.2019 09:34 10,4 C 11,8 C 15,0 C 62 % 1019,9 hPa 0,0 l/m 6,8 km/h (2 Bft) O-SO 112 3,4 C 10,1 C 0,0 km/h (0 Bft)
18.09.2019 09:32 10,4 C 11,9 C 15,0 C 62 % 1019,9 hPa 0,0 l/m 7,1 km/h (2 Bft) SW 225 3,4 C 9,9 C 21,2 km/h (4 Bft)
18.09.2019 09:30 10,3 C 12,1 C 15,0 C 62 % 1019,9 hPa 0,0 l/m 6,4 km/h (2 Bft) NW 315 3,3 C 10,3 C 8,9 km/h (2 Bft)
18.09.2019 09:28 10,2 C 11,6 C 15,0 C 62 % 1019,9 hPa 0,0 l/m 6,9 km/h (2 Bft) S-SO 157 3,3 C 9,8 C 16,2 km/h (3 Bft)
18.09.2019 09:26 10,2 C 11,0 C 15,0 C 62 % 1019,9 hPa 0,0 l/m 6,6 km/h (2 Bft) O-NO 67 3,3 C 10,1 C 16,2 km/h (3 Bft)
18.09.2019 09:24 10,2 C 11,3 C 15,0 C 63 % 1019,9 hPa 0,0 l/m 5,6 km/h (1 Bft) O-SO 112 3,5 C 10,2 C 7,7 km/h (2 Bft)
18.09.2019 09:22 10,2 C 11,4 C 15,0 C 63 % 1019,9 hPa 0,0 l/m 5,1 km/h (1 Bft) O-SO 112 3,5 C 10,2 C 6,0 km/h (2 Bft)
18.09.2019 09:20 10,1 C 11,1 C 15,0 C 63 % 1019,9 hPa 0,0 l/m 5,0 km/h (1 Bft) S-SO 157 3,4 C 10,1 C 8,5 km/h (2 Bft)
18.09.2019 09:18 10,1 C 10,9 C 15,0 C 63 % 1019,9 hPa 0,0 l/m 5,1 km/h (1 Bft) S-SO 157 3,4 C 10,1 C 14,1 km/h (3 Bft)
18.09.2019 09:16 10,2 C 10,7 C 15,0 C 63 % 1019,9 hPa 0,0 l/m 5,3 km/h (1 Bft) S 180 3,5 C 10,2 C 3,3 km/h (1 Bft)
18.09.2019 09:14 10,2 C 10,9 C 15,0 C 63 % 1019,7 hPa 0,0 l/m 5,8 km/h (2 Bft) W-NW 292 3,5 C 10,2 C 4,4 km/h (1 Bft)
18.09.2019 09:12 10,2 C 11,0 C 15,0 C 63 % 1019,7 hPa 0,0 l/m 7,2 km/h (2 Bft) O-SO 112 3,5 C 9,6 C 3,5 km/h (1 Bft)
18.09.2019 09:10 10,1 C 11,0 C 15,0 C 63 % 1019,7 hPa 0,0 l/m 7,7 km/h (2 Bft) W-SW 247 3,4 C 9,2 C 6,0 km/h (2 Bft)
18.09.2019 09:08 10,1 C 10,8 C 15,0 C 62 % 1019,7 hPa 0,0 l/m 8,2 km/h (2 Bft) W-NW 292 3,2 C 8,8 C 13,9 km/h (3 Bft)
18.09.2019 09:06 10,1 C 10,7 C 15,0 C 62 % 1019,7 hPa 0,0 l/m 7,4 km/h (2 Bft) W-NW 292 3,2 C 9,4 C 9,1 km/h (2 Bft)
18.09.2019 09:04 10,1 C 10,9 C 15,0 C 62 % 1019,7 hPa 0,0 l/m 7,2 km/h (2 Bft) S-SW 202 3,2 C 9,5 C 8,1 km/h (2 Bft)
18.09.2019 09:02 10,1 C 10,9 C 15,0 C 62 % 1019,7 hPa 0,0 l/m 7,6 km/h (2 Bft) S-SO 157 3,2 C 9,2 C 21,8 km/h (4 Bft)
18.09.2019 09:00 10,1 C 10,4 C 15,0 C 62 % 1019,7 hPa 0,0 l/m 7,1 km/h (2 Bft) O-SO 112 3,2 C 9,6 C 9,3 km/h (2 Bft)
18.09.2019 08:58 10,1 C 10,4 C 15,0 C 62 % 1019,7 hPa 0,0 l/m 7,2 km/h (2 Bft) S-SO 157 3,2 C 9,5 C 9,3 km/h (2 Bft)
18.09.2019 08:56 10,2 C 10,9 C 15,0 C 62 % 1019,7 hPa 0,0 l/m 6,8 km/h (2 Bft) SO 135 3,3 C 9,9 C 12,7 km/h (3 Bft)
18.09.2019 08:54 10,2 C 11,1 C 15,0 C 62 % 1019,4 hPa 0,0 l/m 6,8 km/h (2 Bft) S-SO 157 3,3 C 9,9 C 9,7 km/h (2 Bft)
18.09.2019 08:52 10,2 C 11,7 C 15,0 C 62 % 1019,4 hPa 0,0 l/m 6,9 km/h (2 Bft) S 180 3,3 C 9,8 C 18,2 km/h (3 Bft)
18.09.2019 08:50 10,2 C 11,9 C 15,0 C 63 % 1019,4 hPa 0,0 l/m 6,8 km/h (2 Bft) S-SO 157 3,5 C 9,9 C 12,2 km/h (2 Bft)
18.09.2019 08:48 10,2 C 11,8 C 15,0 C 63 % 1019,4 hPa 0,0 l/m 6,9 km/h (2 Bft) N-NO 22 3,5 C 9,8 C 8,1 km/h (2 Bft)
18.09.2019 08:46 10,2 C 11,9 C 15,0 C 63 % 1019,4 hPa 0,0 l/m 7,2 km/h (2 Bft) S-SW 202 3,5 C 9,6 C 4,8 km/h (1 Bft)
18.09.2019 08:44 10,1 C 11,9 C 15,0 C 63 % 1019,4 hPa 0,0 l/m 7,4 km/h (2 Bft) SO 135 3,4 C 9,4 C 8,7 km/h (2 Bft)
18.09.2019 08:42 10,1 C 11,7 C 15,0 C 63 % 1019,4 hPa 0,0 l/m 7,7 km/h (2 Bft) O-NO 67 3,4 C 9,2 C 9,8 km/h (2 Bft)
18.09.2019 08:40 10,1 C 11,4 C 15,0 C 63 % 1019,4 hPa 0,0 l/m 7,4 km/h (2 Bft) S-SW 202 3,4 C 9,4 C 7,1 km/h (2 Bft)
18.09.2019 08:38 10,1 C 11,1 C 15,0 C 63 % 1019,4 hPa 0,0 l/m 7,4 km/h (2 Bft) SO 135 3,4 C 9,4 C 15,1 km/h (3 Bft)
18.09.2019 08:36 10,1 C 10,9 C 15,1 C 63 % 1019,4 hPa 0,0 l/m 7,4 km/h (2 Bft) S-SO 157 3,4 C 9,4 C 17,8 km/h (3 Bft)
18.09.2019 08:34 10,1 C 10,8 C 15,1 C 63 % 1019,2 hPa 0,0 l/m 7,2 km/h (2 Bft) W 270 3,4 C 9,5 C 9,7 km/h (2 Bft)
18.09.2019 08:32 10,1 C 10,8 C 15,1 C 63 % 1019,2 hPa 0,0 l/m 7,1 km/h (2 Bft) SW 225 3,4 C 9,6 C 13,9 km/h (3 Bft)
18.09.2019 08:30 10,1 C 10,8 C 15,1 C 63 % 1019,2 hPa 0,0 l/m 7,4 km/h (2 Bft) SO 135 3,4 C 9,4 C 5,4 km/h (1 Bft)
18.09.2019 08:28 10,1 C 10,8 C 15,1 C 63 % 1019,2 hPa 0,0 l/m 6,9 km/h (2 Bft) S-SO 157 3,4 C 9,7 C 14,3 km/h (3 Bft)
18.09.2019 08:26 10,1 C 10,8 C 15,1 C 63 % 1019,2 hPa 0,0 l/m 6,1 km/h (2 Bft) SO 135 3,4 C 10,1 C 12,2 km/h (2 Bft)
18.09.2019 08:24 10,1 C 10,7 C 15,1 C 63 % 1019,2 hPa 0,0 l/m 5,6 km/h (1 Bft) O 90 3,4 C 10,1 C 7,0 km/h (2 Bft)
18.09.2019 08:22 10,2 C 10,7 C 15,1 C 63 % 1019,2 hPa 0,0 l/m 5,1 km/h (1 Bft) S-SO 157 3,5 C 10,2 C 13,5 km/h (3 Bft)
18.09.2019 08:20 10,2 C 10,8 C 15,1 C 63 % 1019,2 hPa 0,0 l/m 5,0 km/h (1 Bft) S-SO 157 3,5 C 10,2 C 10,4 km/h (2 Bft)
18.09.2019 08:18 10,2 C 10,6 C 15,1 C 63 % 1019,2 hPa 0,0 l/m 6,0 km/h (2 Bft) SW 225 3,5 C 10,2 C 4,8 km/h (1 Bft)
18.09.2019 08:16 10,2 C 10,6 C 15,1 C 63 % 1019,2 hPa 0,0 l/m 6,9 km/h (2 Bft) S-SW 202 3,5 C 9,8 C 12,7 km/h (3 Bft)
18.09.2019 08:14 10,2 C 10,8 C 15,1 C 63 % 1019,2 hPa 0,0 l/m 6,9 km/h (2 Bft) O-SO 112 3,5 C 9,8 C 7,1 km/h (2 Bft)
18.09.2019 08:12 10,2 C 10,7 C 15,1 C 63 % 1019,2 hPa 0,0 l/m 7,6 km/h (2 Bft) S 180 3,5 C 9,3 C 6,2 km/h (2 Bft)
18.09.2019 08:10 10,2 C 10,5 C 15,1 C 63 % 1019,2 hPa 0,0 l/m 6,8 km/h (2 Bft) O-SO 112 3,5 C 9,9 C 7,1 km/h (2 Bft)
18.09.2019 08:08 10,2 C 10,4 C 15,1 C 63 % 1019,2 hPa 0,0 l/m 6,8 km/h (2 Bft) SW 225 3,5 C 9,9 C 16,6 km/h (3 Bft)
18.09.2019 08:06 10,2 C 10,5 C 15,1 C 64 % 1019,2 hPa 0,0 l/m 6,9 km/h (2 Bft) S-SO 157 3,7 C 9,8 C 11,8 km/h (2 Bft)
18.09.2019 08:04 10,3 C 10,5 C 15,1 C 64 % 1019,2 hPa 0,0 l/m 7,7 km/h (2 Bft) S 180 3,8 C 9,4 C 8,5 km/h (2 Bft)
18.09.2019 08:02 10,3 C 10,5 C 15,1 C 64 % 1019,2 hPa 0,0 l/m 8,0 km/h (2 Bft) O-SO 112 3,8 C 9,2 C 14,7 km/h (3 Bft)
18.09.2019 08:00 10,3 C 10,6 C 15,1 C 64 % 1019,2 hPa 0,0 l/m 7,7 km/h (2 Bft) S 180 3,8 C 9,4 C 3,3 km/h (1 Bft)
18.09.2019 07:58 10,3 C 10,6 C 15,1 C 64 % 1019,2 hPa 0,0 l/m 8,0 km/h (2 Bft) O-SO 112 3,8 C 9,2 C 14,1 km/h (3 Bft)
18.09.2019 07:56 10,3 C 10,4 C 15,1 C 64 % 1019,2 hPa 0,0 l/m 7,4 km/h (2 Bft) SW 225 3,8 C 9,6 C 15,6 km/h (3 Bft)
18.09.2019 07:54 10,3 C 10,5 C 15,1 C 65 % 1018,9 hPa 0,0 l/m 5,6 km/h (1 Bft) S-SW 202 4,0 C 10,3 C 25,1 km/h (4 Bft)
18.09.2019 07:52 10,3 C 10,5 C 15,1 C 65 % 1018,9 hPa 0,0 l/m 4,2 km/h (1 Bft) S-SO 157 4,0 C 10,3 C 8,3 km/h (2 Bft)
18.09.2019 07:50 10,3 C 10,4 C 15,1 C 65 % 1018,9 hPa 0,0 l/m 3,1 km/h (1 Bft) SO 135 4,0 C 10,3 C 6,6 km/h (2 Bft)
18.09.2019 07:48 10,3 C 10,5 C 15,1 C 65 % 1018,9 hPa 0,0 l/m 2,3 km/h (1 Bft) S-SO 157 4,0 C 10,3 C 9,1 km/h (2 Bft)
18.09.2019 07:46 10,3 C 10,6 C 15,1 C 65 % 1018,9 hPa 0,0 l/m 1,3 km/h (1 Bft) S-SO 157 4,0 C 10,3 C 4,1 km/h (1 Bft)
18.09.2019 07:44 10,3 C 10,6 C 15,1 C 65 % 1018,9 hPa 0,0 l/m 1,3 km/h (1 Bft) S-SO 157 4,0 C 10,3 C 4,1 km/h (1 Bft)
18.09.2019 07:42 10,2 C 10,6 C 15,1 C 65 % 1018,9 hPa 0,0 l/m 1,4 km/h (1 Bft) S-SO 157 3,9 C 10,2 C 5,6 km/h (1 Bft)
18.09.2019 07:40 10,2 C 10,5 C 15,2 C 65 % 1018,9 hPa 0,0 l/m 2,6 km/h (1 Bft) SO 135 3,9 C 10,2 C 2,1 km/h (1 Bft)
18.09.2019 07:38 10,2 C 10,4 C 15,2 C 64 % 1018,9 hPa 0,0 l/m 4,5 km/h (1 Bft) SO 135 3,7 C 10,2 C 0,0 km/h (0 Bft)
18.09.2019 07:36 10,3 C 10,3 C 15,2 C 64 % 1018,9 hPa 0,0 l/m 5,3 km/h (1 Bft) SO 135 3,8 C 10,3 C 0,0 km/h (0 Bft)
18.09.2019 07:34 10,2 C 10,3 C 15,2 C 64 % 1018,9 hPa 0,0 l/m 5,6 km/h (1 Bft) NW 315 3,7 C 10,2 C 2,9 km/h (1 Bft)
18.09.2019 07:32 10,2 C 10,2 C 15,2 C 64 % 1018,9 hPa 0,0 l/m 6,3 km/h (2 Bft) W-NW 292 3,7 C 10,2 C 5,0 km/h (1 Bft)
18.09.2019 07:30 10,2 C 10,3 C 15,2 C 64 % 1018,9 hPa 0,0 l/m 6,4 km/h (2 Bft) W-NW 292 3,7 C 10,2 C 10,0 km/h (2 Bft)
18.09.2019 07:28 10,2 C 10,3 C 15,2 C 64 % 1018,9 hPa 0,0 l/m 5,6 km/h (1 Bft) W-NW 292 3,7 C 10,2 C 13,7 km/h (3 Bft)
18.09.2019 07:26 10,2 C 10,2 C 15,2 C 64 % 1018,9 hPa 0,0 l/m 5,0 km/h (1 Bft) NW 315 3,7 C 10,2 C 3,3 km/h (1 Bft)
18.09.2019 07:24 10,2 C 10,2 C 15,2 C 64 % 1018,9 hPa 0,0 l/m 5,5 km/h (1 Bft) W-NW 292 3,7 C 10,2 C 5,4 km/h (1 Bft)
18.09.2019 07:22 10,2 C 10,1 C 15,2 C 64 % 1018,9 hPa 0,0 l/m 5,8 km/h (2 Bft) W-NW 292 3,7 C 10,2 C 7,5 km/h (2 Bft)
18.09.2019 07:20 10,2 C 10,2 C 15,2 C 64 % 1018,9 hPa 0,0 l/m 6,1 km/h (2 Bft) W 270 3,7 C 10,2 C 9,1 km/h (2 Bft)
18.09.2019 07:18 10,2 C 10,2 C 15,2 C 64 % 1018,9 hPa 0,0 l/m 5,6 km/h (1 Bft) W-NW 292 3,7 C 10,2 C 10,0 km/h (2 Bft)
18.09.2019 07:16 10,2 C 10,1 C 15,2 C 64 % 1018,9 hPa 0,0 l/m 5,8 km/h (2 Bft) NW 315 3,7 C 10,2 C 5,2 km/h (1 Bft)
18.09.2019 07:14 10,2 C 10,1 C 15,2 C 63 % 1018,5 hPa 0,0 l/m 5,5 km/h (1 Bft) NW 315 3,5 C 10,2 C 7,3 km/h (2 Bft)
18.09.2019 07:12 10,2 C 10,1 C 15,2 C 63 % 1018,5 hPa 0,0 l/m 5,1 km/h (1 Bft) W 270 3,5 C 10,2 C 9,5 km/h (2 Bft)
18.09.2019 07:10 10,2 C 10,1 C 15,2 C 63 % 1018,5 hPa 0,0 l/m 5,3 km/h (1 Bft) W-NW 292 3,5 C 10,2 C 13,9 km/h (3 Bft)
18.09.2019 07:08 10,2 C 10,1 C 15,3 C 63 % 1018,5 hPa 0,0 l/m 5,5 km/h (1 Bft) NW 315 3,5 C 10,2 C 7,0 km/h (2 Bft)
18.09.2019 07:06 10,3 C 10,1 C 15,3 C 63 % 1018,5 hPa 0,0 l/m 6,4 km/h (2 Bft) NW 315 3,6 C 10,3 C 10,0 km/h (2 Bft)
18.09.2019 07:04 10,3 C 10,0 C 15,3 C 63 % 1018,5 hPa 0,0 l/m 7,9 km/h (2 Bft) W-NW 292 3,6 C 9,2 C 6,8 km/h (2 Bft)
18.09.2019 07:02 10,3 C 10,1 C 15,3 C 63 % 1018,5 hPa 0,0 l/m 8,4 km/h (2 Bft) W-NW 292 3,6 C 8,9 C 10,6 km/h (2 Bft)
18.09.2019 07:00 10,3 C 10,1 C 15,3 C 63 % 1018,5 hPa 0,0 l/m 8,7 km/h (2 Bft) W-NW 292 3,6 C 8,7 C 13,5 km/h (3 Bft)
18.09.2019 06:58 10,3 C 10,1 C 15,3 C 63 % 1018,5 hPa 0,0 l/m 9,8 km/h (2 Bft) NW 315 3,6 C 8,0 C 9,5 km/h (2 Bft)
18.09.2019 06:56 10,3 C 10,2 C 15,3 C 63 % 1018,5 hPa 0,0 l/m 10,3 km/h (2 Bft) SW 225 3,6 C 7,8 C 16,6 km/h (3 Bft)
18.09.2019 06:54 10,3 C 10,2 C 15,3 C 63 % 1018,5 hPa 0,0 l/m 10,0 km/h (2 Bft) W-NW 292 3,6 C 7,9 C 14,3 km/h (3 Bft)
18.09.2019 06:52 10,3 C 10,2 C 15,3 C 63 % 1018,5 hPa 0,0 l/m 10,6 km/h (2 Bft) N-NW 337 3,6 C 7,6 C 10,0 km/h (2 Bft)
18.09.2019 06:50 10,3 C 10,2 C 15,3 C 63 % 1018,5 hPa 0,0 l/m 12,6 km/h (3 Bft) W-SW 247 3,6 C 6,6 C 16,2 km/h (3 Bft)
18.09.2019 06:48 10,3 C 10,2 C 15,3 C 63 % 1018,5 hPa 0,0 l/m 11,6 km/h (2 Bft) NW 315 3,6 C 7,1 C 14,9 km/h (3 Bft)
18.09.2019 06:46 10,3 C 10,1 C 15,4 C 63 % 1018,5 hPa 0,0 l/m 12,4 km/h (3 Bft) W-NW 292 3,6 C 6,7 C 18,3 km/h (3 Bft)
18.09.2019 06:44 10,4 C 10,2 C 15,4 C 63 % 1018,5 hPa 0,0 l/m 13,4 km/h (3 Bft) W 270 3,7 C 6,3 C 16,0 km/h (3 Bft)
18.09.2019 06:42 10,4 C 10,3 C 15,4 C 63 % 1018,5 hPa 0,0 l/m 13,7 km/h (3 Bft) W 270 3,7 C 6,2 C 18,3 km/h (3 Bft)
18.09.2019 06:40 10,4 C 10,3 C 15,4 C 63 % 1018,5 hPa 0,0 l/m 12,7 km/h (3 Bft) N-NO 22 3,7 C 6,6 C 24,7 km/h (4 Bft)
18.09.2019 06:38 10,4 C 10,2 C 15,4 C 63 % 1018,5 hPa 0,0 l/m 12,2 km/h (2 Bft) NW 315 3,7 C 6,9 C 6,0 km/h (2 Bft)
18.09.2019 06:36 10,4 C 10,3 C 15,4 C 63 % 1018,5 hPa 0,0 l/m 12,9 km/h (3 Bft) NW 315 3,7 C 6,5 C 23,6 km/h (4 Bft)
18.09.2019 06:34 10,4 C 10,3 C 15,4 C 63 % 1018,2 hPa 0,0 l/m 11,7 km/h (2 Bft) N 360 3,7 C 7,1 C 22,8 km/h (4 Bft)
18.09.2019 06:32 10,4 C 10,3 C 15,4 C 63 % 1018,2 hPa 0,0 l/m 10,3 km/h (2 Bft) W-NW 292 3,7 C 7,9 C 32,3 km/h (5 Bft)
18.09.2019 06:30 10,4 C 10,2 C 15,4 C 63 % 1018,2 hPa 0,0 l/m 9,0 km/h (2 Bft) NW 315 3,7 C 8,6 C 7,9 km/h (2 Bft)
18.09.2019 06:28 10,4 C 10,2 C 15,4 C 63 % 1018,2 hPa 0,0 l/m 10,1 km/h (2 Bft) S-SO 157 3,7 C 8,0 C 13,3 km/h (3 Bft)
18.09.2019 06:26 10,4 C 10,2 C 15,4 C 63 % 1018,2 hPa 0,0 l/m 10,9 km/h (2 Bft) W-NW 292 3,7 C 7,5 C 24,1 km/h (4 Bft)
18.09.2019 06:24 10,4 C 10,2 C 15,5 C 63 % 1018,2 hPa 0,0 l/m 11,3 km/h (2 Bft) NW 315 3,7 C 7,3 C 13,3 km/h (3 Bft)
18.09.2019 06:22 10,4 C 10,3 C 15,5 C 63 % 1018,2 hPa 0,0 l/m 11,9 km/h (2 Bft) W 270 3,7 C 7,0 C 8,1 km/h (2 Bft)
18.09.2019 06:20 10,5 C 10,3 C 15,5 C 63 % 1018,2 hPa 0,0 l/m 12,6 km/h (3 Bft) NW 315 3,8 C 6,8 C 21,0 km/h (4 Bft)
18.09.2019 06:18 10,5 C 10,3 C 15,5 C 63 % 1018,2 hPa 0,0 l/m 12,1 km/h (2 Bft) W-NW 292 3,8 C 7,0 C 16,0 km/h (3 Bft)
18.09.2019 06:16 10,5 C 10,4 C 15,5 C 63 % 1018,2 hPa 0,0 l/m 10,6 km/h (2 Bft) N-NW 337 3,8 C 7,8 C 12,7 km/h (3 Bft)
18.09.2019 06:14 10,5 C 10,4 C 15,5 C 63 % 1017,9 hPa 0,0 l/m 10,5 km/h (2 Bft) W-NW 292 3,8 C 7,9 C 20,5 km/h (4 Bft)
18.09.2019 06:12 10,6 C 10,4 C 15,5 C 63 % 1017,9 hPa 0,0 l/m 9,5 km/h (2 Bft) N 360 3,9 C 8,5 C 7,9 km/h (2 Bft)
18.09.2019 06:10 10,8 C 10,6 C 15,5 C 63 % 1017,9 hPa 0,0 l/m 9,5 km/h (2 Bft) N 360 4,0 C 8,8 C 7,9 km/h (2 Bft)
18.09.2019 06:08 10,8 C 10,6 C 15,5 C 63 % 1017,9 hPa 0,0 l/m 9,5 km/h (2 Bft) N 360 4,0 C 8,8 C 7,9 km/h (2 Bft)
18.09.2019 06:06 10,8 C 10,6 C 15,5 C 63 % 1017,9 hPa 0,0 l/m 9,5 km/h (2 Bft) N 360 4,0 C 8,8 C 7,9 km/h (2 Bft)
18.09.2019 06:04 10,8 C 10,6 C 15,5 C 63 % 1017,9 hPa 0,0 l/m 9,5 km/h (2 Bft) N 360 4,0 C 8,8 C 7,9 km/h (2 Bft)
18.09.2019 06:02 10,8 C 10,6 C 15,5 C 63 % 1017,9 hPa 0,0 l/m 9,5 km/h (2 Bft) W-NW 292 4,0 C 8,8 C 14,5 km/h (3 Bft)
18.09.2019 06:00 10,8 C 10,6 C 15,5 C 63 % 1017,9 hPa 0,0 l/m 9,5 km/h (2 Bft) NW 315 4,0 C 8,8 C 11,0 km/h (2 Bft)
18.09.2019 05:58 10,9 C 10,7 C 15,6 C 63 % 1017,9 hPa 0,0 l/m 9,5 km/h (2 Bft) W-NW 292 4,1 C 8,9 C 18,7 km/h (3 Bft)
18.09.2019 05:56 10,9 C 10,8 C 15,6 C 63 % 1017,9 hPa 0,0 l/m 7,9 km/h (2 Bft) NW 315 4,1 C 9,9 C 17,4 km/h (3 Bft)
18.09.2019 05:54 10,9 C 10,7 C 15,6 C 63 % 1017,7 hPa 0,0 l/m 7,1 km/h (2 Bft) W-NW 292 4,1 C 10,4 C 13,7 km/h (3 Bft)
18.09.2019 05:52 10,9 C 10,6 C 15,6 C 63 % 1017,7 hPa 0,0 l/m 7,2 km/h (2 Bft) W-NW 292 4,1 C 10,3 C 6,4 km/h (2 Bft)
18.09.2019 05:50 10,9 C 10,7 C 15,6 C 63 % 1017,7 hPa 0,0 l/m 7,2 km/h (2 Bft) W 270 4,1 C 10,3 C 13,5 km/h (3 Bft)
18.09.2019 05:48 11,0 C 10,7 C 15,6 C 63 % 1017,7 hPa 0,0 l/m 6,3 km/h (2 Bft) W-NW 292 4,2 C 11,0 C 10,2 km/h (2 Bft)
18.09.2019 05:46 11,0 C 10,6 C 15,6 C 63 % 1017,7 hPa 0,0 l/m 7,1 km/h (2 Bft) NW 315 4,2 C 10,5 C 7,0 km/h (2 Bft)
18.09.2019 05:44 11,0 C 10,7 C 15,6 C 63 % 1017,7 hPa 0,0 l/m 6,9 km/h (2 Bft) W-NW 292 4,2 C 10,7 C 8,9 km/h (2 Bft)
18.09.2019 05:42 11,1 C 10,7 C 15,6 C 63 % 1017,7 hPa 0,0 l/m 7,2 km/h (2 Bft) W-NW 292 4,3 C 10,5 C 22,8 km/h (4 Bft)
18.09.2019 05:40 11,2 C 10,7 C 15,6 C 63 % 1017,7 hPa 0,0 l/m 8,4 km/h (2 Bft) SW 225 4,4 C 9,9 C 9,1 km/h (2 Bft)
18.09.2019 05:38 11,3 C 10,7 C 15,6 C 63 % 1017,7 hPa 0,0 l/m 8,2 km/h (2 Bft) S-SW 202 4,5 C 10,1 C 4,2 km/h (1 Bft)
18.09.2019 05:36 11,3 C 10,8 C 15,6 C 63 % 1017,7 hPa 0,0 l/m 8,9 km/h (2 Bft) SW 225 4,5 C 9,7 C 16,2 km/h (3 Bft)
18.09.2019 05:34 11,3 C 10,7 C 15,6 C 63 % 1017,6 hPa 0,0 l/m 8,9 km/h (2 Bft) W-SW 247 4,5 C 9,7 C 7,0 km/h (2 Bft)
18.09.2019 05:32 11,4 C 10,9 C 15,6 C 63 % 1017,6 hPa 0,0 l/m 8,4 km/h (2 Bft) S-SW 202 4,6 C 10,1 C 14,7 km/h (3 Bft)
18.09.2019 05:30 11,4 C 11,0 C 15,7 C 63 % 1017,6 hPa 0,0 l/m 6,6 km/h (2 Bft) O-NO 67 4,6 C 11,3 C 21,4 km/h (4 Bft)
18.09.2019 05:28 11,4 C 10,8 C 15,7 C 63 % 1017,6 hPa 0,0 l/m 6,0 km/h (2 Bft) SO 135 4,6 C 11,4 C 6,4 km/h (2 Bft)
18.09.2019 05:26 11,4 C 10,7 C 15,7 C 63 % 1017,6 hPa 0,0 l/m 6,4 km/h (2 Bft) S-SO 157 4,6 C 11,4 C 23,6 km/h (4 Bft)
18.09.2019 05:24 11,4 C 10,6 C 15,7 C 63 % 1017,6 hPa 0,0 l/m 6,0 km/h (2 Bft) S 180 4,6 C 11,4 C 8,7 km/h (2 Bft)
18.09.2019 05:22 11,4 C 10,7 C 15,7 C 63 % 1017,6 hPa 0,0 l/m 6,1 km/h (2 Bft) SO 135 4,6 C 11,4 C 4,6 km/h (1 Bft)
18.09.2019 05:20 11,4 C 10,8 C 15,7 C 62 % 1017,6 hPa 0,0 l/m 6,4 km/h (2 Bft) W 270 4,4 C 11,4 C 4,2 km/h (1 Bft)
18.09.2019 05:18 11,5 C 10,9 C 15,7 C 62 % 1017,6 hPa 0,0 l/m 6,4 km/h (2 Bft) W 270 4,5 C 11,5 C 10,6 km/h (2 Bft)
18.09.2019 05:16 11,4 C 10,9 C 15,7 C 62 % 1017,6 hPa 0,0 l/m 6,0 km/h (2 Bft) NW 315 4,4 C 11,4 C 16,2 km/h (3 Bft)
18.09.2019 05:14 11,5 C 10,9 C 15,7 C 62 % 1017,6 hPa 0,0 l/m 5,1 km/h (1 Bft) NW 315 4,5 C 11,5 C 9,3 km/h (2 Bft)
18.09.2019 05:12 11,4 C 10,9 C 15,7 C 62 % 1017,6 hPa 0,0 l/m 4,8 km/h (1 Bft) SO 135 4,4 C 11,4 C 5,2 km/h (1 Bft)
18.09.2019 05:10 11,4 C 10,9 C 15,7 C 62 % 1017,6 hPa 0,0 l/m 5,5 km/h (1 Bft) SO 135 4,4 C 11,4 C 3,5 km/h (1 Bft)
18.09.2019 05:08 11,5 C 11,0 C 15,7 C 62 % 1017,6 hPa 0,0 l/m 6,0 km/h (2 Bft) W 270 4,5 C 11,5 C 10,8 km/h (2 Bft)
18.09.2019 05:06 11,5 C 11,1 C 15,7 C 62 % 1017,6 hPa 0,0 l/m 5,3 km/h (1 Bft) SW 225 4,5 C 11,5 C 5,4 km/h (1 Bft)
18.09.2019 05:04 11,5 C 11,0 C 15,7 C 62 % 1017,6 hPa 0,0 l/m 5,8 km/h (2 Bft) W-NW 292 4,5 C 11,5 C 7,3 km/h (2 Bft)
18.09.2019 05:02 11,5 C 11,0 C 15,8 C 62 % 1017,6 hPa 0,0 l/m 6,0 km/h (2 Bft) S-SW 202 4,5 C 11,5 C 8,9 km/h (2 Bft)
18.09.2019 05:00 11,6 C 11,1 C 15,8 C 62 % 1017,6 hPa 0,0 l/m 6,1 km/h (2 Bft) W 270 4,6 C 11,6 C 6,4 km/h (2 Bft)
18.09.2019 04:58 11,6 C 11,1 C 15,8 C 62 % 1017,6 hPa 0,0 l/m 6,9 km/h (2 Bft) S-SO 157 4,6 C 11,3 C 2,3 km/h (1 Bft)
18.09.2019 04:56 11,6 C 11,1 C 15,8 C 62 % 1017,6 hPa 0,0 l/m 8,7 km/h (2 Bft) W-NW 292 4,6 C 10,1 C 8,1 km/h (2 Bft)
18.09.2019 04:54 11,6 C 11,2 C 15,8 C 62 % 1017,3 hPa 0,0 l/m 10,3 km/h (2 Bft) S-SW 202 4,6 C 9,2 C 7,9 km/h (2 Bft)
18.09.2019 04:52 11,6 C 11,3 C 15,8 C 62 % 1017,3 hPa 0,0 l/m 11,1 km/h (2 Bft) NW 315 4,6 C 8,8 C 14,7 km/h (3 Bft)
18.09.2019 04:50 11,6 C 11,2 C 15,8 C 62 % 1017,3 hPa 0,0 l/m 10,9 km/h (2 Bft) NW 315 4,6 C 8,9 C 9,1 km/h (2 Bft)
18.09.2019 04:48 11,6 C 11,3 C 15,8 C 62 % 1017,3 hPa 0,0 l/m 11,4 km/h (2 Bft) W-NW 292 4,6 C 8,6 C 14,5 km/h (3 Bft)
18.09.2019 04:46 11,7 C 11,5 C 15,8 C 62 % 1017,3 hPa 0,0 l/m 10,8 km/h (2 Bft) NW 315 4,7 C 9,1 C 24,1 km/h (4 Bft)
18.09.2019 04:44 11,7 C 11,4 C 15,8 C 62 % 1017,3 hPa 0,0 l/m 8,9 km/h (2 Bft) W-NW 292 4,7 C 10,1 C 13,3 km/h (3 Bft)
18.09.2019 04:42 11,7 C 11,3 C 15,8 C 62 % 1017,3 hPa 0,0 l/m 7,4 km/h (2 Bft) SW 225 4,7 C 11,0 C 13,9 km/h (3 Bft)
18.09.2019 04:40 11,6 C 11,2 C 15,8 C 62 % 1017,3 hPa 0,0 l/m 6,8 km/h (2 Bft) W-SW 247 4,6 C 11,3 C 9,3 km/h (2 Bft)
18.09.2019 04:38 11,8 C 11,2 C 15,9 C 62 % 1017,3 hPa 0,0 l/m 5,6 km/h (1 Bft) NW 315 4,8 C 11,8 C 12,2 km/h (2 Bft)
18.09.2019 04:36 11,8 C 11,1 C 15,9 C 62 % 1017,3 hPa 0,0 l/m 5,1 km/h (1 Bft) NW 315 4,8 C 11,8 C 17,4 km/h (3 Bft)
18.09.2019 04:34 11,7 C 11,0 C 15,9 C 62 % 1017,0 hPa 0,0 l/m 5,6 km/h (1 Bft) SW 225 4,7 C 11,7 C 11,6 km/h (2 Bft)
18.09.2019 04:32 11,8 C 11,0 C 15,9 C 62 % 1017,0 hPa 0,0 l/m 7,7 km/h (2 Bft) W-NW 292 4,8 C 10,9 C 4,8 km/h (1 Bft)
18.09.2019 04:30 11,8 C 11,0 C 15,9 C 62 % 1017,0 hPa 0,0 l/m 11,4 km/h (2 Bft) S-SO 157 4,8 C 8,9 C 3,9 km/h (1 Bft)
18.09.2019 04:28 11,8 C 11,0 C 15,9 C 62 % 1017,0 hPa 0,0 l/m 12,1 km/h (2 Bft) SW 225 4,8 C 8,5 C 9,8 km/h (2 Bft)
18.09.2019 04:26 11,8 C 11,2 C 15,9 C 62 % 1017,0 hPa 0,0 l/m 13,5 km/h (3 Bft) SW 225 4,8 C 7,9 C 11,4 km/h (2 Bft)
18.09.2019 04:24 11,8 C 11,5 C 15,9 C 62 % 1017,0 hPa 0,0 l/m 13,4 km/h (3 Bft) SW 225 4,8 C 8,0 C 14,5 km/h (3 Bft)
18.09.2019 04:22 11,9 C 11,6 C 15,9 C 62 % 1017,0 hPa 0,0 l/m 13,7 km/h (3 Bft) NW 315 4,9 C 8,0 C 19,9 km/h (4 Bft)
18.09.2019 04:20 11,9 C 11,6 C 15,9 C 62 % 1017,0 hPa 0,0 l/m 10,5 km/h (2 Bft) NW 315 4,9 C 9,4 C 30,1 km/h (5 Bft)
18.09.2019 04:18 11,9 C 11,4 C 15,9 C 62 % 1017,0 hPa 0,0 l/m 10,1 km/h (2 Bft) W 270 4,9 C 9,6 C 10,0 km/h (2 Bft)
18.09.2019 04:16 11,9 C 11,4 C 15,9 C 62 % 1017,0 hPa 0,0 l/m 9,5 km/h (2 Bft) W 270 4,9 C 10,0 C 19,1 km/h (3 Bft)
18.09.2019 04:14 11,9 C 11,4 C 16,0 C 62 % 1017,0 hPa 0,0 l/m 9,0 km/h (2 Bft) NW 315 4,9 C 10,2 C 10,8 km/h (2 Bft)
18.09.2019 04:12 11,9 C 11,4 C 16,0 C 62 % 1017,0 hPa 0,0 l/m 7,9 km/h (2 Bft) W 270 4,9 C 10,9 C 23,6 km/h (4 Bft)
18.09.2019 04:10 11,9 C 11,3 C 16,0 C 62 % 1017,0 hPa 0,0 l/m 10,0 km/h (2 Bft) S-SO 157 4,9 C 9,7 C 6,8 km/h (2 Bft)
18.09.2019 04:08 11,9 C 11,5 C 16,0 C 62 % 1017,0 hPa 0,0 l/m 8,9 km/h (2 Bft) NW 315 4,9 C 10,3 C 16,2 km/h (3 Bft)
18.09.2019 04:06 12,0 C 11,5 C 16,0 C 62 % 1017,0 hPa 0,0 l/m 8,4 km/h (2 Bft) W-NW 292 4,9 C 10,7 C 8,1 km/h (2 Bft)
18.09.2019 04:04 12,0 C 11,5 C 16,0 C 62 % 1017,0 hPa 0,0 l/m 8,0 km/h (2 Bft) W-SW 247 4,9 C 11,0 C 11,6 km/h (2 Bft)
18.09.2019 04:02 12,1 C 11,6 C 16,0 C 62 % 1017,0 hPa 0,0 l/m 8,0 km/h (2 Bft) W-NW 292 5,0 C 11,1 C 3,1 km/h (1 Bft)
18.09.2019 04:00 12,1 C 11,6 C 16,0 C 62 % 1017,0 hPa 0,0 l/m 6,6 km/h (2 Bft) NW 315 5,0 C 12,0 C 41,7 km/h (6 Bft)
18.09.2019 03:58 12,0 C 11,4 C 16,0 C 62 % 1017,0 hPa 0,0 l/m 4,5 km/h (1 Bft) W-NW 292 4,9 C 12,0 C 10,8 km/h (2 Bft)
18.09.2019 03:56 12,1 C 11,2 C 16,0 C 62 % 1017,0 hPa 0,0 l/m 5,3 km/h (1 Bft) S-SW 202 5,0 C 12,1 C 5,0 km/h (1 Bft)
18.09.2019 03:54 12,1 C 11,2 C 16,0 C 62 % 1016,9 hPa 0,0 l/m 7,1 km/h (2 Bft) S-SO 157 5,0 C 11,6 C 5,6 km/h (1 Bft)
18.09.2019 03:52 12,1 C 11,2 C 16,0 C 62 % 1016,9 hPa 0,0 l/m 7,9 km/h (2 Bft) NW 315 5,0 C 11,1 C 7,9 km/h (2 Bft)
18.09.2019 03:50 12,1 C 11,3 C 16,0 C 62 % 1016,9 hPa 0,0 l/m 8,4 km/h (2 Bft) O-SO 112 5,0 C 10,8 C 3,3 km/h (1 Bft)
18.09.2019 03:48 12,1 C 11,4 C 16,0 C 62 % 1016,9 hPa 0,0 l/m 9,0 km/h (2 Bft) S-SW 202 5,0 C 10,5 C 7,0 km/h (2 Bft)
18.09.2019 03:46 12,1 C 11,6 C 16,1 C 62 % 1016,9 hPa 0,0 l/m 9,3 km/h (2 Bft) W 270 5,0 C 10,3 C 14,1 km/h (3 Bft)
18.09.2019 03:44 12,2 C 11,7 C 16,1 C 62 % 1016,9 hPa 0,0 l/m 9,0 km/h (2 Bft) W-NW 292 5,1 C 10,6 C 17,6 km/h (3 Bft)
18.09.2019 03:42 12,2 C 11,6 C 16,0 C 62 % 1016,9 hPa 0,0 l/m 7,2 km/h (2 Bft) NW 315 5,1 C 11,7 C 15,8 km/h (3 Bft)
18.09.2019 03:40 12,2 C 11,6 C 16,0 C 62 % 1016,9 hPa 0,0 l/m 6,1 km/h (2 Bft) N-NW 337 5,1 C 12,2 C 15,6 km/h (3 Bft)
18.09.2019 03:38 12,2 C 11,6 C 16,0 C 62 % 1016,9 hPa 0,0 l/m 4,7 km/h (1 Bft) SW 225 5,1 C 12,2 C 8,1 km/h (2 Bft)
18.09.2019 03:36 12,3 C 11,6 C 16,0 C 62 % 1016,9 hPa 0,0 l/m 4,3 km/h (1 Bft) W-NW 292 5,2 C 12,3 C 13,5 km/h (3 Bft)
18.09.2019 03:34 12,3 C 11,5 C 16,0 C 62 % 1016,8 hPa 0,0 l/m 3,4 km/h (1 Bft) W-NW 292 5,2 C 12,3 C 13,5 km/h (3 Bft)
18.09.2019 03:32 12,3 C 11,1 C 16,0 C 62 % 1016,8 hPa 0,0 l/m 4,5 km/h (1 Bft) W-NW 292 5,2 C 12,3 C 4,8 km/h (1 Bft)
18.09.2019 03:30 12,4 C 11,3 C 16,0 C 62 % 1016,8 hPa 0,0 l/m 5,0 km/h (1 Bft) S-SW 202 5,3 C 12,4 C 0,0 km/h (0 Bft)
18.09.2019 03:28 12,4 C 11,5 C 16,0 C 62 % 1016,8 hPa 0,0 l/m 5,8 km/h (2 Bft) S-SW 202 5,3 C 12,4 C 5,2 km/h (1 Bft)
18.09.2019 03:26 12,5 C 11,6 C 16,0 C 62 % 1016,8 hPa 0,0 l/m 6,0 km/h (2 Bft) W-NW 292 5,4 C 12,5 C 5,0 km/h (1 Bft)
18.09.2019 03:24 12,4 C 11,7 C 16,0 C 62 % 1016,8 hPa 0,0 l/m 6,1 km/h (2 Bft) N-NO 22 5,3 C 12,4 C 9,7 km/h (2 Bft)
18.09.2019 03:22 12,4 C 11,7 C 16,0 C 62 % 1016,8 hPa 0,0 l/m 6,0 km/h (2 Bft) W-NW 292 5,3 C 12,4 C 20,7 km/h (4 Bft)
18.09.2019 03:20 12,4 C 11,3 C 16,0 C 62 % 1016,8 hPa 0,0 l/m 5,3 km/h (1 Bft) S-SW 202 5,3 C 12,4 C 5,0 km/h (1 Bft)
18.09.2019 03:18 12,4 C 11,3 C 16,1 C 62 % 1016,8 hPa 0,0 l/m 5,8 km/h (2 Bft) W-NW 292 5,3 C 12,4 C 7,5 km/h (2 Bft)
18.09.2019 03:16 12,5 C 11,4 C 16,1 C 62 % 1016,8 hPa 0,0 l/m 6,0 km/h (2 Bft) SW 225 5,4 C 12,5 C 7,1 km/h (2 Bft)
18.09.2019 03:14 12,5 C 11,6 C 16,1 C 62 % 1016,6 hPa 0,0 l/m 6,1 km/h (2 Bft) W-SW 247 5,4 C 12,5 C 10,8 km/h (2 Bft)
18.09.2019 03:12 12,5 C 11,7 C 16,1 C 62 % 1016,6 hPa 0,0 l/m 7,9 km/h (2 Bft) NW 315 5,4 C 11,5 C 13,3 km/h (3 Bft)
18.09.2019 03:10 12,6 C 11,5 C 16,1 C 63 % 1016,6 hPa 0,0 l/m 7,9 km/h (2 Bft) NW 315 5,7 C 11,6 C 13,3 km/h (3 Bft)
18.09.2019 03:08 12,6 C 11,5 C 16,1 C 63 % 1016,6 hPa 0,0 l/m 7,9 km/h (2 Bft) NW 315 5,7 C 11,6 C 13,3 km/h (3 Bft)
18.09.2019 03:06 12,6 C 11,5 C 16,1 C 63 % 1016,6 hPa 0,0 l/m 7,9 km/h (2 Bft) NW 315 5,7 C 11,6 C 13,3 km/h (3 Bft)
18.09.2019 03:04 12,6 C 11,5 C 16,1 C 63 % 1016,6 hPa 0,0 l/m 7,9 km/h (2 Bft) NW 315 5,7 C 11,6 C 13,3 km/h (3 Bft)
18.09.2019 03:02 12,6 C 11,5 C 16,1 C 63 % 1016,6 hPa 0,0 l/m 7,7 km/h (2 Bft) W-NW 292 5,7 C 11,8 C 11,2 km/h (2 Bft)
18.09.2019 03:00 12,6 C 11,5 C 16,1 C 63 % 1016,6 hPa 0,0 l/m 7,9 km/h (2 Bft) S-SW 202 5,7 C 11,6 C 9,7 km/h (2 Bft)
18.09.2019 02:58 12,7 C 11,5 C 16,1 C 63 % 1016,6 hPa 0,0 l/m 7,6 km/h (2 Bft) S-SO 157 5,8 C 11,9 C 8,5 km/h (2 Bft)
18.09.2019 02:56 12,7 C 11,7 C 16,1 C 63 % 1016,6 hPa 0,0 l/m 7,7 km/h (2 Bft) S 180 5,8 C 11,9 C 18,3 km/h (3 Bft)
18.09.2019 02:54 12,8 C 11,7 C 16,1 C 63 % 1016,6 hPa 0,0 l/m 8,2 km/h (2 Bft) SO 135 5,9 C 11,7 C 15,1 km/h (3 Bft)
18.09.2019 02:52 12,8 C 11,8 C 16,1 C 63 % 1016,6 hPa 0,0 l/m 8,5 km/h (2 Bft) SO 135 5,9 C 11,5 C 6,6 km/h (2 Bft)
18.09.2019 02:50 12,8 C 11,6 C 16,2 C 63 % 1016,6 hPa 0,0 l/m 8,9 km/h (2 Bft) SO 135 5,9 C 11,3 C 9,7 km/h (2 Bft)
18.09.2019 02:48 12,8 C 11,7 C 16,2 C 63 % 1016,6 hPa 0,0 l/m 8,5 km/h (2 Bft) W-NW 292 5,9 C 11,5 C 5,8 km/h (2 Bft)
18.09.2019 02:46 12,8 C 11,9 C 16,2 C 63 % 1016,6 hPa 0,0 l/m 8,0 km/h (2 Bft) SW 225 5,9 C 11,8 C 16,6 km/h (3 Bft)
18.09.2019 02:44 12,8 C 12,2 C 16,2 C 63 % 1016,6 hPa 0,0 l/m 7,6 km/h (2 Bft) S-SW 202 5,9 C 12,0 C 15,1 km/h (3 Bft)
18.09.2019 02:42 12,8 C 11,9 C 16,2 C 63 % 1016,6 hPa 0,0 l/m 6,8 km/h (2 Bft) SW 225 5,9 C 12,6 C 14,7 km/h (3 Bft)
18.09.2019 02:40 12,8 C 11,8 C 16,2 C 63 % 1016,6 hPa 0,0 l/m 5,6 km/h (1 Bft) S-SO 157 5,9 C 12,8 C 15,4 km/h (3 Bft)
18.09.2019 02:38 12,8 C 11,8 C 16,2 C 63 % 1016,6 hPa 0,0 l/m 5,3 km/h (1 Bft) S-SW 202 5,9 C 12,8 C 7,0 km/h (2 Bft)
18.09.2019 02:36 12,8 C 11,8 C 16,2 C 63 % 1016,6 hPa 0,0 l/m 4,8 km/h (1 Bft) W-SW 247 5,9 C 12,8 C 5,8 km/h (2 Bft)
18.09.2019 02:34 12,8 C 11,8 C 16,2 C 63 % 1016,7 hPa 0,0 l/m 4,7 km/h (1 Bft) S-SW 202 5,9 C 12,8 C 14,7 km/h (3 Bft)
18.09.2019 02:32 12,9 C 11,7 C 16,2 C 63 % 1016,7 hPa 0,0 l/m 5,1 km/h (1 Bft) S-SO 157 6,0 C 12,9 C 9,3 km/h (2 Bft)
18.09.2019 02:30 12,9 C 11,7 C 16,2 C 63 % 1016,7 hPa 0,0 l/m 6,9 km/h (2 Bft) NW 315 6,0 C 12,6 C 27,8 km/h (4 Bft)
18.09.2019 02:28 12,9 C 11,7 C 16,2 C 63 % 1016,7 hPa 0,0 l/m 7,6 km/h (2 Bft) S-SW 202 6,0 C 12,1 C 4,4 km/h (1 Bft)
18.09.2019 02:26 13,0 C 11,7 C 16,2 C 62 % 1016,7 hPa 0,0 l/m 8,7 km/h (2 Bft) W 270 5,9 C 11,6 C 3,3 km/h (1 Bft)
18.09.2019 02:24 12,9 C 11,7 C 16,3 C 63 % 1016,7 hPa 0,0 l/m 8,9 km/h (2 Bft) S 180 6,0 C 11,4 C 9,5 km/h (2 Bft)
18.09.2019 02:22 13,0 C 11,9 C 16,3 C 62 % 1016,7 hPa 0,0 l/m 8,7 km/h (2 Bft) W 270 5,9 C 11,6 C 18,7 km/h (3 Bft)
18.09.2019 02:20 13,0 C 11,9 C 16,3 C 62 % 1016,7 hPa 0,0 l/m 6,6 km/h (2 Bft) N-NO 22 5,9 C 12,9 C 19,3 km/h (3 Bft)
18.09.2019 02:18 13,1 C 11,8 C 16,3 C 62 % 1016,7 hPa 0,0 l/m 6,0 km/h (2 Bft) O-NO 67 6,0 C 13,1 C 11,8 km/h (2 Bft)
18.09.2019 02:16 13,1 C 11,6 C 16,3 C 63 % 1016,7 hPa 0,0 l/m 5,8 km/h (2 Bft) W 270 6,2 C 13,1 C 12,6 km/h (3 Bft)
18.09.2019 02:14 13,0 C 11,8 C 16,3 C 63 % 1016,8 hPa 0,0 l/m 6,8 km/h (2 Bft) W 270 6,1 C 12,8 C 6,8 km/h (2 Bft)
18.09.2019 02:12 13,0 C 11,6 C 16,3 C 63 % 1016,8 hPa 0,0 l/m 8,4 km/h (2 Bft) O-SO 112 6,1 C 11,8 C 7,1 km/h (2 Bft)
18.09.2019 02:10 13,0 C 11,2 C 16,3 C 63 % 1016,8 hPa 0,0 l/m 8,4 km/h (2 Bft) NO 45 6,1 C 11,8 C 7,9 km/h (2 Bft)
18.09.2019 02:08 13,0 C 11,0 C 16,3 C 63 % 1016,8 hPa 0,0 l/m 10,0 km/h (2 Bft) SW 225 6,1 C 10,9 C 7,3 km/h (2 Bft)
18.09.2019 02:06 13,1 C 11,4 C 16,3 C 63 % 1016,8 hPa 0,0 l/m 10,5 km/h (2 Bft) W 270 6,2 C 10,8 C 8,3 km/h (2 Bft)
18.09.2019 02:04 13,2 C 11,9 C 16,3 C 63 % 1016,8 hPa 0,0 l/m 10,6 km/h (2 Bft) SW 225 6,3 C 10,8 C 21,0 km/h (4 Bft)
18.09.2019 02:02 13,2 C 12,3 C 16,3 C 63 % 1016,8 hPa 0,0 l/m 9,0 km/h (2 Bft) W-NW 292 6,3 C 11,6 C 20,5 km/h (4 Bft)
18.09.2019 02:00 13,2 C 12,2 C 16,3 C 63 % 1016,8 hPa 0,0 l/m 8,5 km/h (2 Bft) NW 315 6,3 C 11,9 C 4,2 km/h (1 Bft)
18.09.2019 01:58 13,2 C 12,3 C 16,4 C 63 % 1016,8 hPa 0,0 l/m 8,5 km/h (2 Bft) SW 225 6,3 C 11,9 C 19,9 km/h (4 Bft)
18.09.2019 01:56 13,2 C 12,0 C 16,4 C 63 % 1016,8 hPa 0,0 l/m 7,9 km/h (2 Bft) W-NW 292 6,3 C 12,3 C 16,0 km/h (3 Bft)
18.09.2019 01:54 13,2 C 11,9 C 16,4 C 63 % 1016,6 hPa 0,0 l/m 7,6 km/h (2 Bft) SW 225 6,3 C 12,5 C 14,1 km/h (3 Bft)
18.09.2019 01:52 13,1 C 11,7 C 16,4 C 63 % 1016,6 hPa 0,0 l/m 7,6 km/h (2 Bft) W-SW 247 6,2 C 12,3 C 15,6 km/h (3 Bft)
18.09.2019 01:50 13,2 C 11,6 C 16,4 C 63 % 1016,6 hPa 0,0 l/m 7,2 km/h (2 Bft) S 180 6,3 C 12,7 C 7,0 km/h (2 Bft)
18.09.2019 01:48 13,2 C 11,7 C 16,4 C 63 % 1016,6 hPa 0,0 l/m 7,9 km/h (2 Bft) S 180 6,3 C 12,3 C 13,9 km/h (3 Bft)
18.09.2019 01:46 13,3 C 12,1 C 16,4 C 63 % 1016,6 hPa 0,0 l/m 7,2 km/h (2 Bft) W 270 6,4 C 12,8 C 8,9 km/h (2 Bft)
18.09.2019 01:44 13,4 C 12,4 C 16,4 C 63 % 1016,6 hPa 0,0 l/m 7,2 km/h (2 Bft) N 360 6,5 C 12,9 C 12,9 km/h (3 Bft)
18.09.2019 01:42 13,3 C 12,4 C 16,4 C 63 % 1016,6 hPa 0,0 l/m 7,6 km/h (2 Bft) W 270 6,4 C 12,6 C 10,2 km/h (2 Bft)
18.09.2019 01:40 13,3 C 12,0 C 16,4 C 63 % 1016,6 hPa 0,0 l/m 8,7 km/h (2 Bft) N 360 6,4 C 11,9 C 5,8 km/h (2 Bft)
18.09.2019 01:38 13,3 C 12,1 C 16,4 C 63 % 1016,6 hPa 0,0 l/m 9,3 km/h (2 Bft) W 270 6,4 C 11,6 C 11,8 km/h (2 Bft)
18.09.2019 01:36 13,3 C 11,9 C 16,6 C 63 % 1016,6 hPa 0,0 l/m 9,2 km/h (2 Bft) S-SW 202 6,4 C 11,7 C 11,0 km/h (2 Bft)
18.09.2019 01:34 13,3 C 11,6 C 16,6 C 63 % 1016,3 hPa 0,0 l/m 9,8 km/h (2 Bft) O-SO 112 6,4 C 11,3 C 13,1 km/h (3 Bft)
18.09.2019 01:32 13,4 C 12,0 C 16,6 C 63 % 1016,3 hPa 0,0 l/m 10,0 km/h (2 Bft) S 180 6,5 C 11,4 C 17,4 km/h (3 Bft)
18.09.2019 01:30 13,3 C 12,3 C 16,6 C 63 % 1016,3 hPa 0,0 l/m 10,3 km/h (2 Bft) W-NW 292 6,4 C 11,1 C 20,1 km/h (4 Bft)
18.09.2019 01:28 13,3 C 12,1 C 16,6 C 63 % 1016,3 hPa 0,0 l/m 10,1 km/h (2 Bft) W 270 6,4 C 11,2 C 18,5 km/h (3 Bft)
18.09.2019 01:26 13,3 C 11,9 C 16,6 C 63 % 1016,3 hPa 0,0 l/m 9,3 km/h (2 Bft) NW 315 6,4 C 11,6 C 16,0 km/h (3 Bft)
18.09.2019 01:24 13,3 C 11,9 C 16,6 C 63 % 1016,3 hPa 0,0 l/m 8,2 km/h (2 Bft) W-SW 247 6,4 C 12,2 C 17,2 km/h (3 Bft)
18.09.2019 01:22 13,4 C 12,2 C 16,6 C 63 % 1016,3 hPa 0,0 l/m 7,7 km/h (2 Bft) W-SW 247 6,5 C 12,6 C 13,1 km/h (3 Bft)
18.09.2019 01:20 13,3 C 12,1 C 16,6 C 64 % 1016,3 hPa 0,0 l/m 6,9 km/h (2 Bft) SW 225 6,6 C 13,0 C 12,4 km/h (3 Bft)
18.09.2019 01:18 13,2 C 11,8 C 16,6 C 64 % 1016,3 hPa 0,0 l/m 6,0 km/h (2 Bft) S-SO 157 6,5 C 13,2 C 7,5 km/h (2 Bft)
18.09.2019 01:16 13,3 C 11,2 C 16,6 C 64 % 1016,3 hPa 0,0 l/m 5,8 km/h (2 Bft) O 90 6,6 C 13,3 C 5,0 km/h (1 Bft)
18.09.2019 01:14 13,3 C 11,6 C 16,6 C 64 % 1016,5 hPa 0,0 l/m 6,8 km/h (2 Bft) S-SO 157 6,6 C 13,1 C 3,9 km/h (1 Bft)
18.09.2019 01:12 13,3 C 12,0 C 16,6 C 64 % 1016,5 hPa 0,0 l/m 6,8 km/h (2 Bft) S 180 6,6 C 13,1 C 13,5 km/h (3 Bft)
18.09.2019 01:10 13,3 C 11,7 C 16,6 C 64 % 1016,5 hPa 0,0 l/m 5,8 km/h (2 Bft) S 180 6,6 C 13,3 C 12,4 km/h (3 Bft)
18.09.2019 01:08 13,2 C 11,6 C 16,7 C 64 % 1016,5 hPa 0,0 l/m 4,8 km/h (1 Bft) W 270 6,5 C 13,2 C 8,3 km/h (2 Bft)
18.09.2019 01:06 13,2 C 12,0 C 16,7 C 64 % 1016,5 hPa 0,0 l/m 4,7 km/h (1 Bft) S-SW 202 6,5 C 13,2 C 3,7 km/h (1 Bft)
18.09.2019 01:04 13,2 C 11,8 C 16,7 C 63 % 1016,5 hPa 0,0 l/m 4,0 km/h (1 Bft) W-SW 247 6,3 C 13,2 C 12,0 km/h (2 Bft)
18.09.2019 01:02 13,2 C 10,7 C 16,7 C 63 % 1016,5 hPa 0,0 l/m 3,5 km/h (1 Bft) NO 45 6,3 C 13,2 C 5,6 km/h (1 Bft)
18.09.2019 01:00 13,2 C 9,7 C 16,7 C 63 % 1016,5 hPa 0,0 l/m 3,9 km/h (1 Bft) N 360 6,3 C 13,2 C 0,0 km/h (0 Bft)
18.09.2019 00:58 13,2 C 9,7 C 16,7 C 63 % 1016,5 hPa 0,0 l/m 5,3 km/h (1 Bft) S-SW 202 6,3 C 13,2 C 5,0 km/h (1 Bft)
18.09.2019 00:56 13,2 C 10,2 C 16,7 C 63 % 1016,5 hPa 0,0 l/m 4,8 km/h (1 Bft) S-SW 202 6,3 C 13,2 C 9,5 km/h (2 Bft)
18.09.2019 00:54 13,2 C 10,1 C 16,7 C 63 % 1016,7 hPa 0,0 l/m 5,0 km/h (1 Bft) S-SO 157 6,3 C 13,2 C 6,2 km/h (2 Bft)
18.09.2019 00:52 13,2 C 10,2 C 16,7 C 63 % 1016,7 hPa 0,0 l/m 5,0 km/h (1 Bft) SW 225 6,3 C 13,2 C 9,3 km/h (2 Bft)
18.09.2019 00:50 13,2 C 10,9 C 16,7 C 63 % 1016,7 hPa 0,0 l/m 5,1 km/h (1 Bft) SW 225 6,3 C 13,2 C 8,3 km/h (2 Bft)
18.09.2019 00:48 13,2 C 10,7 C 16,7 C 63 % 1016,7 hPa 0,0 l/m 4,5 km/h (1 Bft) O-SO 112 6,3 C 13,2 C 11,8 km/h (2 Bft)
18.09.2019 00:46 13,2 C 10,6 C 16,8 C 63 % 1016,7 hPa 0,0 l/m 4,7 km/h (1 Bft) NW 315 6,3 C 13,2 C 2,3 km/h (1 Bft)
18.09.2019 00:44 13,2 C 11,0 C 16,8 C 63 % 1016,7 hPa 0,0 l/m 5,1 km/h (1 Bft) NW 315 6,3 C 13,2 C 7,5 km/h (2 Bft)
18.09.2019 00:42 13,2 C 10,4 C 16,8 C 63 % 1016,7 hPa 0,0 l/m 5,5 km/h (1 Bft) W-NW 292 6,3 C 13,2 C 4,1 km/h (1 Bft)
18.09.2019 00:40 13,2 C 10,2 C 16,8 C 63 % 1016,7 hPa 0,0 l/m 6,3 km/h (2 Bft) S-SO 157 6,3 C 13,2 C 10,2 km/h (2 Bft)
18.09.2019 00:38 13,2 C 9,8 C 16,8 C 63 % 1016,7 hPa 0,0 l/m 6,0 km/h (2 Bft) S-SW 202 6,3 C 13,2 C 6,0 km/h (2 Bft)
18.09.2019 00:36 13,2 C 9,7 C 16,8 C 63 % 1016,7 hPa 0,0 l/m 7,2 km/h (2 Bft) SO 135 6,3 C 12,7 C 6,8 km/h (2 Bft)
18.09.2019 00:34 13,3 C 10,2 C 16,8 C 62 % 1015,9 hPa 0,0 l/m 7,4 km/h (2 Bft) NW 315 6,2 C 12,7 C 9,3 km/h (2 Bft)
18.09.2019 00:32 13,3 C 10,8 C 16,8 C 62 % 1015,9 hPa 0,0 l/m 7,4 km/h (2 Bft) SO 135 6,2 C 12,7 C 7,0 km/h (2 Bft)
18.09.2019 00:30 13,4 C 11,2 C 16,8 C 62 % 1015,9 hPa 0,0 l/m 8,0 km/h (2 Bft) NW 315 6,3 C 12,4 C 9,7 km/h (2 Bft)
18.09.2019 00:28 13,4 C 11,3 C 16,8 C 62 % 1015,9 hPa 0,0 l/m 8,5 km/h (2 Bft) S-SW 202 6,3 C 12,1 C 5,8 km/h (2 Bft)
18.09.2019 00:26 13,3 C 11,5 C 16,8 C 62 % 1015,9 hPa 0,0 l/m 9,3 km/h (2 Bft) S-SW 202 6,2 C 11,6 C 14,9 km/h (3 Bft)
18.09.2019 00:24 13,3 C 10,7 C 16,8 C 62 % 1015,9 hPa 0,0 l/m 9,3 km/h (2 Bft) S-SW 202 6,2 C 11,6 C 11,2 km/h (2 Bft)
18.09.2019 00:22 13,4 C 10,3 C 16,8 C 62 % 1015,9 hPa 0,0 l/m 9,3 km/h (2 Bft) SO 135 6,3 C 11,7 C 7,1 km/h (2 Bft)
18.09.2019 00:20 13,4 C 10,7 C 16,8 C 62 % 1015,9 hPa 0,0 l/m 8,5 km/h (2 Bft) S-SO 157 6,3 C 12,1 C 25,9 km/h (4 Bft)
18.09.2019 00:18 13,4 C 10,2 C 16,8 C 62 % 1015,9 hPa 0,0 l/m 8,0 km/h (2 Bft) SW 225 6,3 C 12,4 C 14,7 km/h (3 Bft)
18.09.2019 00:16 13,4 C 11,3 C 16,8 C 62 % 1015,9 hPa 0,0 l/m 8,5 km/h (2 Bft) S 180 6,3 C 12,1 C 18,3 km/h (3 Bft)
18.09.2019 00:14 13,4 C 11,0 C 16,8 C 62 % 1016,5 hPa 0,0 l/m 8,7 km/h (2 Bft) W-SW 247 6,3 C 12,0 C 20,9 km/h (4 Bft)
18.09.2019 00:12 13,4 C 10,7 C 16,8 C 62 % 1016,5 hPa 0,0 l/m 6,1 km/h (2 Bft) S 180 6,3 C 13,4 C 7,5 km/h (2 Bft)
18.09.2019 00:10 13,4 C 9,1 C 16,9 C 62 % 1016,5 hPa 0,0 l/m 6,1 km/h (2 Bft) S 180 6,3 C 13,4 C 7,5 km/h (2 Bft)
18.09.2019 00:08 13,4 C 9,1 C 16,9 C 62 % 1016,5 hPa 0,0 l/m 6,1 km/h (2 Bft) S 180 6,3 C 13,4 C 7,5 km/h (2 Bft)
18.09.2019 00:06 13,4 C 9,1 C 16,9 C 62 % 1016,5 hPa 0,0 l/m 6,1 km/h (2 Bft) S 180 6,3 C 13,4 C 7,5 km/h (2 Bft)
18.09.2019 00:04 13,4 C 9,1 C 16,9 C 62 % 1016,5 hPa 0,0 l/m 6,1 km/h (2 Bft) S 180 6,3 C 13,4 C 7,5 km/h (2 Bft)
18.09.2019 00:02 13,4 C 9,1 C 16,9 C 62 % 1016,5 hPa 0,0 l/m 6,4 km/h (2 Bft) W-SW 247 6,3 C 13,4 C 8,9 km/h (2 Bft)
18.09.2019 00:00 13,4 C 9,1 C 16,9 C 62 % 1016,5 hPa 0,0 l/m 6,0 km/h (2 Bft) S-SW 202 6,3 C 13,4 C 5,8 km/h (2 Bft)
_ Min-Zeit 19:52 19:52 10:18 15:38 00:16 - 18:46 - - 19:52 06:42 01:00
Minimum _ 6,5 C 0,8 C 14,9 C 37 % 1015,9 hPa - 0,0 km/h (0 Bft) - - -0,5 C 6,2 C 0,0 km/h (0 Bft)
_ Max-Zeit 15:50 15:30 00:00 07:40 09:56 00:00 04:22 - - 01:10 16:14 04:00
Maximum _ 16,6 C 27,2 C 16,9 C 65 % 1020,8 hPa 0,0 l/m 13,7 km/h
NW (3 Bft)
- - 6,6 C 16,4 C 41,7 km/h
NW (6 Bft)
Durchschnitt _ 12,7 C 14,2 C 15,5 C 55 % 1018,6 hPa #0,0 l/m 7,2 km/h (2 Bft) W-NW - 3,7 C 11,9 C 10,6 km/h (2 Bft)